W4HSV Weather Reports


time (UTC)temp
F
wind
direction
speed
knots
gust
knots
rain 1hr
in
rain 24hr
in
rain mn
in
humidity
%
barometer
mb
20260903235421 94 87 1.7 3.5 0.00 0.00 0.00 57 1014.1
20260903235327 94 134 1.7 2.6 0.00 0.00 0.00 56 1014.1
20260903235235 94 127 0.9 2.6 0.00 0.00 0.00 56 1014.1
20260903235125 94 128 0.9 2.6 0.00 0.00 0.00 57 1014.1
20260903235032 94 125 1.7 2.6 0.00 0.00 0.00 56 1014.1
20260903234920 94 111 0.9 2.6 0.00 0.00 0.00 56 1014.1
20260903234827 94 67 0.9 2.6 0.00 0.00 0.00 55 1014.1
20260903234802 94 69 0.9 2.6 0.00 0.00 0.00 55 1014.1
20260903234535 94 84 0.9 2.6 0.00 0.00 0.00 55 1014.0
20260903234420 94 115 0.9 1.7 0.00 0.00 0.00 55 1014.0
20260903234328 94 59 0.9 1.7 0.00 0.00 0.00 55 1014.0
20260903234235 94 58 0.9 1.7 0.00 0.00 0.00 54 1014.0
20260903234142 95 355 0.9 1.7 0.00 0.00 0.00 55 1014.0
20260903234032 95 355 0.0 1.7 0.00 0.00 0.00 54 1013.9
20260903233938 95 286 0.0 1.7 0.00 0.00 0.00 54 1014.0
20260903233824 95 286 0.0 1.7 0.00 0.00 0.00 54 1014.0
20260903233729 95 286 0.0 1.7 0.00 0.00 0.00 54 1014.0
20260903233617 95 286 0.0 1.7 0.00 0.00 0.00 54 1014.0
20260903233525 95 286 0.9 1.7 0.00 0.00 0.00 55 1014.0
20260903233437 95 286 0.9 1.7 0.00 0.00 0.00 55 1014.0
20260903233405 95 286 0.9 1.7 0.00 0.00 0.00 55 1014.0
20260903233253 95 286 0.9 2.6 0.00 0.00 0.00 54 1014.0
20260903233026 95 270 0.9 2.6 0.00 0.00 0.00 54 1014.0
20260903232932 96 270 0.9 2.6 0.00 0.00 0.00 54 1013.9
20260903232838 96 270 0.9 3.5 0.00 0.00 0.00 54 1014.0
20260903232729 96 270 0.0 3.5 0.00 0.00 0.00 55 1014.0
20260903232635 96 270 0.9 3.5 0.00 0.00 0.00 55 1014.1
20260903232521 96 270 0.9 3.5 0.00 0.00 0.00 55 1014.0
20260903232449 96 270 1.7 3.5 0.00 0.00 0.00 55 1014.0
20260903232335 96 269 1.7 3.5 0.00 0.00 0.00 55 1014.0
20260903232241 96 279 1.7 3.5 0.00 0.00 0.00 56 1014.1
20260903232131 96 281 1.7 3.5 0.00 0.00 0.00 55 1014.0
20260903232018 96 294 1.7 3.5 0.00 0.00 0.00 51 1014.0
20260903231925 96 188 2.6 3.5 0.00 0.00 0.00 50 1014.0
20260903231831 96 224 1.7 3.5 0.00 0.00 0.00 51 1014.0
20260903231802 96 215 1.7 3.5 0.00 0.00 0.00 51 1014.0
20260903231520 96 217 0.9 1.7 0.00 0.00 0.00 50 1014.0
20260903231426 96 216 0.9 1.7 0.00 0.00 0.00 50 1014.1
20260903231334 96 179 0.9 1.7 0.00 0.00 0.00 51 1014.0
20260903231221 96 36 0.9 1.7 0.00 0.00 0.00 50 1014.1
20260903231127 96 36 0.9 1.7 0.00 0.00 0.00 50 1014.0
20260903231019 96 59 0.0 1.7 0.00 0.00 0.00 50 1014.0
20260903230945 96 121 0.0 2.6 0.00 0.00 0.00 50 1014.0
20260903230831 96 121 0.0 2.6 0.00 0.00 0.00 50 1014.0
20260903230738 96 121 0.0 2.6 0.00 0.00 0.00 49 1013.9
20260903230624 96 121 0.0 2.6 0.00 0.00 0.00 49 1014.0
20260903230530 96 121 0.0 2.6 0.00 0.00 0.00 49 1014.0
20260903230456 96 121 0.0 2.6 0.00 0.00 0.00 49 1014.0
20260903230327 96 121 0.9 2.6 0.00 0.00 0.00 49 1013.9
20260903230257 96 121 1.7 3.5 0.00 0.00 0.00 50 1013.9
20260903230030 96 121 0.9 3.5 0.00 0.00 0.00 50 1014.0
20260903225937 96 105 0.9 3.5 0.00 0.00 0.00 50 1014.0
20260903225826 97 105 1.7 3.5 0.00 0.00 0.00 49 1014.1
20260903225732 97 134 1.7 3.5 0.00 0.00 0.00 49 1014.1
20260903225619 97 120 1.7 3.5 0.00 0.00 0.00 50 1014.0
20260903225528 97 149 1.7 3.5 0.00 0.00 0.00 49 1014.0
20260903225454 97 111 1.7 3.5 0.00 0.00 0.00 49 1014.0
20260903225320 97 117 1.7 3.5 0.00 0.00 0.00 49 1014.1
20260903225248 97 115 1.7 3.5 0.00 0.00 0.00 48 1014.0
20260903225137 97 115 1.7 3.5 0.00 0.00 0.00 49 1014.0
20260903225022 97 142 0.9 3.5 0.00 0.00 0.00 49 1014.0
20260903224930 97 119 1.7 3.5 0.00 0.00 0.00 50 1014.0
20260903224817 97 132 1.7 3.5 0.00 0.00 0.00 49 1014.0
20260903224752 97 84 2.6 3.5 0.00 0.00 0.00 49 1014.0
20260903224526 97 61 2.6 3.5 0.00 0.00 0.00 49 1013.9
20260903224433 97 57 2.6 3.5 0.00 0.00 0.00 50 1013.9
20260903224319 97 81 1.7 3.5 0.00 0.00 0.00 50 1013.9
20260903224246 97 40 1.7 3.5 0.00 0.00 0.00 50 1013.9
20260903224133 97 79 2.6 3.5 0.00 0.00 0.00 49 1013.9
20260903224044 97 99 2.6 3.5 0.00 0.00 0.00 50 1013.9
20260903223930 97 36 1.7 3.5 0.00 0.00 0.00 49 1013.8
20260903223835 96 63 1.7 3.5 0.00 0.00 0.00 50 1013.9
20260903223723 96 54 1.7 4.3 0.00 0.00 0.00 50 1013.9
20260903223629 96 59 1.7 4.3 0.00 0.00 0.00 50 1013.9
20260903223536 96 54 2.6 4.3 0.00 0.00 0.00 50 1013.9
20260903223427 96 55 1.7 4.3 0.00 0.00 0.00 50 1013.9
20260903223334 96 59 1.7 4.3 0.00 0.00 0.00 51 1013.8
20260903223304 96 58 1.7 4.3 0.00 0.00 0.00 49 1013.8
20260903223017 96 81 2.6 4.3 0.00 0.00 0.00 50 1013.8
20260903222924 96 78 3.5 4.3 0.00 0.00 0.00 49 1013.8
20260903222834 96 68 2.6 4.3 0.00 0.00 0.00 50 1013.8
20260903222720 96 72 1.7 4.3 0.00 0.00 0.00 51 1013.7
20260903222626 96 58 1.7 4.3 0.00 0.00 0.00 50 1013.7
20260903222533 96 110 2.6 5.2 0.00 0.00 0.00 50 1013.8
20260903222420 95 72 2.6 5.2 0.00 0.00 0.00 51 1013.8
20260903222331 95 74 1.7 5.2 0.00 0.00 0.00 52 1013.8
20260903222239 95 5 2.6 7.0 0.00 0.00 0.00 52 1013.8
20260903222123 95 113 2.6 7.0 0.00 0.00 0.00 51 1013.9
20260903222029 95 123 2.6 7.0 0.00 0.00 0.00 53 1013.8
20260903221936 95 69 2.6 7.0 0.00 0.00 0.00 52 1013.8
20260903221822 95 76 3.5 7.0 0.00 0.00 0.00 51 1013.8
20260903221756 95 82 3.5 7.0 0.00 0.00 0.00 52 1013.8
20260903221528 96 131 3.5 7.0 0.00 0.00 0.00 52 1013.9
20260903221435 96 105 3.5 7.0 0.00 0.00 0.00 52 1013.9
20260903221322 96 134 3.5 7.0 0.00 0.00 0.00 51 1013.9
20260903221229 96 111 3.5 7.0 0.00 0.00 0.00 51 1013.8
20260903221121 96 109 2.6 7.0 0.00 0.00 0.00 53 1013.8
20260903221028 96 96 3.5 7.0 0.00 0.00 0.00 51 1013.8
20260903220934 96 80 3.5 7.0 0.00 0.00 0.00 51 1013.8
20260903220820 96 115 4.3 7.0 0.00 0.00 0.00 52 1013.8
20260903220748 96 109 5.2 7.0 0.00 0.00 0.00 51 1013.8
20260903220634 96 120 4.3 7.0 0.00 0.00 0.00 53 1013.8
20260903220524 96 126 3.5 6.1 0.00 0.00 0.00 51 1013.8
20260903220430 96 82 2.6 6.1 0.00 0.00 0.00 51 1013.8
20260903220359 96 106 2.6 6.1 0.00 0.00 0.00 52 1013.8
20260903220330 96 84 2.6 5.2 0.00 0.00 0.00 52 1013.9
20260903220042 96 114 4.3 7.0 0.00 0.00 0.00 51 1013.8
20260903215931 96 103 3.5 7.8 0.00 0.00 0.00 51 1013.8
20260903215818 96 100 1.7 7.8 0.00 0.00 0.00 52 1013.7
20260903215723 96 119 1.7 7.8 0.00 0.00 0.00 53 1013.7
20260903215631 95 72 2.6 7.8 0.00 0.00 0.00 52 1013.7
20260903215518 95 88 3.5 7.8 0.00 0.00 0.00 51 1013.7
20260903215425 95 82 3.5 7.8 0.00 0.00 0.00 51 1013.7
20260903215334 95 84 3.5 7.8 0.00 0.00 0.00 50 1013.7
20260903215242 95 96 4.3 7.8 0.00 0.00 0.00 51 1013.6
20260903215128 95 36 4.3 7.8 0.00 0.00 0.00 50 1013.7
20260903215034 95 78 4.3 7.8 0.00 0.00 0.00 51 1013.6
20260903214920 95 113 4.3 7.8 0.00 0.00 0.00 52 1013.7
20260903214826 95 114 5.2 7.8 0.00 0.00 0.00 52 1013.7
20260903214801 95 79 4.3 7.8 0.00 0.00 0.00 51 1013.7
20260903214534 95 49 2.6 7.8 0.00 0.00 0.00 51 1013.7
20260903214440 95 11 2.6 9.6 0.00 0.00 0.00 51 1013.7
20260903214326 95 42 2.6 9.6 0.00 0.00 0.00 52 1013.7
20260903214251 95 80 3.5 9.6 0.00 0.00 0.00 52 1013.7
20260903214121 95 67 5.2 9.6 0.00 0.00 0.00 52 1013.8
20260903214048 95 72 5.2 9.6 0.00 0.00 0.00 51 1013.8
20260903213935 95 64 4.3 9.6 0.00 0.00 0.00 51 1013.8
20260903213821 95 66 3.5 9.6 0.00 0.00 0.00 51 1013.9
20260903213727 95 61 4.3 9.6 0.00 0.00 0.00 51 1013.9
20260903213655 95 20 5.2 9.6 0.00 0.00 0.00 50 1013.8
20260903213526 95 61 5.2 9.6 0.00 0.00 0.00 51 1013.8
20260903213432 95 84 4.3 9.6 0.00 0.00 0.00 51 1013.9
20260903213359 95 78 3.5 9.6 0.00 0.00 0.00 51 1013.9
20260903213329 95 71 3.5 9.6 0.00 0.00 0.00 50 1013.9
20260903213022 95 5 5.2 10.4 0.00 0.00 0.00 50 1013.9
20260903212933 95 69 4.3 10.4 0.00 0.00 0.00 49 1014.0
20260903212820 96 77 5.2 11.3 0.00 0.00 0.00 49 1014.0
20260903212727 96 105 6.1 11.3 0.00 0.00 0.00 49 1013.9
20260903212633 96 85 7.0 11.3 0.00 0.00 0.00 49 1013.9
20260903212521 96 27 5.2 11.3 0.00 0.00 0.00 49 1014.0
20260903212428 96 80 3.5 12.2 0.00 0.00 0.00 49 1014.0
20260903212317 96 60 4.3 12.2 0.00 0.00 0.00 48 1013.9
20260903212224 96 9 5.2 12.2 0.00 0.00 0.00 48 1014.0
20260903212130 97 46 5.2 12.2 0.00 0.00 0.00 48 1013.9
20260903212036 97 61 6.1 13.0 0.00 0.00 0.00 48 1013.9
20260903211922 97 83 7.0 13.0 0.00 0.00 0.00 48 1014.0
20260903211829 97 60 7.0 13.0 0.00 0.00 0.00 48 1013.9
20260903211804 98 64 6.1 13.0 0.00 0.00 0.00 49 1013.9
20260903211537 98 37 3.5 13.0 0.00 0.00 0.00 49 1014.0
20260903211443 98 320 4.3 13.0 0.00 0.00 0.00 49 1014.0
20260903211246 98 22 9.6 13.0 0.00 0.00 0.00 49 1014.0
20260903211131 99 31 8.7 13.0 0.00 0.00 0.00 49 1014.0
20260903211022 99 61 7.0 12.2 0.00 0.00 0.00 49 1014.1
20260903210928 99 26 5.2 9.6 0.00 0.00 0.00 49 1014.0
20260903210856 99 38 4.3 9.6 0.00 0.00 0.00 48 1013.8
20260903210721 98 39 4.3 9.6 0.00 0.00 0.00 49 1014.0
20260903210649 98 24 4.3 9.6 0.00 0.00 0.00 49 1014.0
20260903210555 98 58 5.2 9.6 0.00 0.00 0.00 51 1013.9
20260903210422 98 73 5.2 9.6 0.00 0.00 0.00 50 1013.9
20260903210334 98 30 5.2 9.6 0.00 0.00 0.00 53 1013.9
20260903210305 98 88 6.1 9.6 0.00 0.00 0.00 53 1013.9
20260903210038 98 29 3.5 7.0 0.00 0.00 0.00 49 1014.0
20260903205923 98 50 2.6 6.1 0.00 0.00 0.00 49 1014.0
20260903205830 98 66 1.7 6.1 0.00 0.00 0.00 51 1013.9
20260903205722 98 15 2.6 6.1 0.00 0.00 0.00 51 1013.9
20260903205629 98 162 3.5 6.1 0.00 0.00 0.00 48 1014.0
20260903205556 98 140 4.3 6.1 0.00 0.00 0.00 50 1014.0
20260903205422 98 132 2.6 6.1 0.00 0.00 0.00 50 1013.9
20260903205349 98 139 1.7 5.2 0.00 0.00 0.00 49 1014.0
20260903205235 98 92 2.6 5.2 0.00 0.00 0.00 51 1014.0
20260903205126 98 117 2.6 5.2 0.00 0.00 0.00 50 1014.0
20260903205034 98 96 2.6 5.2 0.00 0.00 0.00 49 1014.0
20260903204921 98 336 1.7 4.3 0.00 0.00 0.00 49 1014.0
20260903204802 99 150 1.7 4.3 0.00 0.00 0.00 49 1014.0
20260903204535 99 229 2.6 7.8 0.00 0.00 0.00 50 1014.1
20260903204442 99 215 1.7 7.8 0.00 0.00 0.00 49 1014.0
20260903204329 99 118 1.7 7.8 0.00 0.00 0.00 52 1014.0
20260903204255 99 109 2.6 7.8 0.00 0.00 0.00 49 1014.0
20260903204121 99 127 2.6 7.8 0.00 0.00 0.00 48 1014.1
20260903204049 99 107 1.7 7.8 0.00 0.00 0.00 48 1014.0
20260903203938 99 210 4.3 7.8 0.00 0.00 0.00 49 1014.1
20260903203826 99 240 4.3 7.8 0.00 0.00 0.00 48 1014.0
20260903203733 99 254 3.5 8.7 0.00 0.00 0.00 49 1014.0
20260903203640 99 212 3.5 8.7 0.00 0.00 0.00 50 1014.2
20260903203525 99 227 3.5 8.7 0.00 0.00 0.00 50 1014.1
20260903203432 99 225 2.6 8.7 0.00 0.00 0.00 52 1014.1
20260903203322 99 225 3.5 8.7 0.00 0.00 0.00 50 1014.1
20260903203253 99 187 3.5 8.7 0.00 0.00 0.00 49 1014.1
20260903203025 99 209 4.3 8.7 0.00 0.00 0.00 50 1014.2
20260903202931 99 216 4.3 8.7 0.00 0.00 0.00 50 1014.3
20260903202818 99 199 2.6 5.2 0.00 0.00 0.00 50 1014.2
20260903202729 99 274 3.5 7.0 0.00 0.00 0.00 51 1014.3
20260903202635 99 232 2.6 7.0 0.00 0.00 0.00 50 1014.3
20260903202522 99 236 0.9 8.7 0.00 0.00 0.00 50 1014.3
20260903202430 99 162 1.7 8.7 0.00 0.00 0.00 49 1014.3
20260903202336 99 136 1.7 8.7 0.00 0.00 0.00 49 1014.4
20260903202226 99 171 2.6 8.7 0.00 0.00 0.00 47 1014.4
20260903202134 99 186 3.5 8.7 0.00 0.00 0.00 47 1014.4
20260903202019 99 182 4.3 9.6 0.00 0.00 0.00 49 1014.5
20260903201926 99 168 5.2 11.3 0.00 0.00 0.00 50 1014.4
20260903201852 99 146 6.1 11.3 0.00 0.00 0.00 49 1014.5
20260903201801 99 171 6.1 11.3 0.00 0.00 0.00 49 1014.5
20260903201538 99 170 5.2 11.3 0.00 0.00 0.00 50 1014.5
20260903201424 99 171 5.2 11.3 0.00 0.00 0.00 48 1014.5
20260903201351 99 196 6.1 11.3 0.00 0.00 0.00 49 1014.5
20260903201218 99 194 7.0 11.3 0.00 0.00 0.00 49 1014.5
20260903201123 99 183 4.3 11.3 0.00 0.00 0.00 49 1014.5
20260903201029 99 185 3.5 7.8 0.00 0.00 0.00 52 1014.5
20260903200920 99 131 3.5 7.8 0.00 0.00 0.00 49 1014.5
20260903200847 99 201 2.6 7.8 0.00 0.00 0.00 50 1014.5
20260903200733 99 240 4.3 7.8 0.00 0.00 0.00 49 1014.5
20260903200620 99 223 5.2 7.8 0.00 0.00 0.00 49 1014.6
20260903200527 99 223 4.3 7.8 0.00 0.00 0.00 49 1014.6
20260903200433 99 209 2.6 8.7 0.00 0.00 0.00 49 1014.6
20260903200400 98 214 1.7 7.0 0.00 0.00 0.00 49 1014.6
20260903200314 98 218 2.6 7.0 0.00 0.00 0.00 49 1014.6
20260903200026 98 205 3.5 8.7 0.00 0.00 0.00 50 1014.6
20260903195933 98 209 2.6 8.7 0.00 0.00 0.00 49 1014.6
20260903195819 98 189 2.6 8.7 0.00 0.00 0.00 48 1014.7
20260903195729 98 202 3.5 8.7 0.00 0.00 0.00 49 1014.7
20260903195635 98 273 4.3 8.7 0.00 0.00 0.00 48 1014.7
20260903195522 98 192 4.3 8.7 0.00 0.00 0.00 49 1014.7
20260903195430 98 183 4.3 8.7 0.00 0.00 0.00 48 1014.7
20260903195317 98 200 5.2 8.7 0.00 0.00 0.00 50 1014.6
20260903195224 98 205 4.3 8.7 0.00 0.00 0.00 50 1014.6
20260903195134 98 205 2.6 6.1 0.00 0.00 0.00 50 1014.8
20260903195021 98 201 1.7 6.1 0.00 0.00 0.00 50 1014.7
20260903194927 98 210 1.7 6.1 0.00 0.00 0.00 49 1014.7
20260903194834 98 178 3.5 6.1 0.00 0.00 0.00 52 1014.7
20260903194809 98 178 3.5 6.1 0.00 0.00 0.00 49 1014.7
20260903194521 98 207 4.3 6.1 0.00 0.00 0.00 49 1014.8
20260903194429 98 182 3.5 6.1 0.00 0.00 0.00 49 1014.9
20260903194354 98 171 3.5 6.1 0.00 0.00 0.00 51 1014.8
20260903194219 98 200 3.5 6.1 0.00 0.00 0.00 50 1014.9
20260903194126 98 210 3.5 6.1 0.00 0.00 0.00 49 1014.9
20260903194018 98 204 2.6 6.1 0.00 0.00 0.00 51 1014.9
20260903193945 98 171 2.6 6.1 0.00 0.00 0.00 50 1014.9
20260903193852 98 188 2.6 5.2 0.00 0.00 0.00 49 1014.8
20260903193719 98 162 2.6 5.2 0.00 0.00 0.00 49 1015.0
20260903193627 98 273 1.7 5.2 0.00 0.00 0.00 49 1014.9
20260903193534 98 238 0.9 5.2 0.00 0.00 0.00 50 1014.9
20260903193424 98 184 1.7 5.2 0.00 0.00 0.00 49 1014.9
20260903193331 98 220 1.7 5.2 0.00 0.00 0.00 49 1014.9
20260903193303 98 220 2.6 5.2 0.00 0.00 0.00 50 1014.9
20260903193036 98 232 2.6 4.3 0.00 0.00 0.00 50 1015.1
20260903192922 98 9 3.5 4.3 0.00 0.00 0.00 49 1015.1
20260903192834 98 99 3.5 4.3 0.00 0.00 0.00 49 1015.1
20260903192719 97 117 2.6 4.3 0.00 0.00 0.00 51 1015.0
20260903192627 97 53 2.6 4.3 0.00 0.00 0.00 51 1015.0
20260903192533 97 94 2.6 4.3 0.00 0.00 0.00 50 1015.0
20260903192420 97 35 1.7 3.5 0.00 0.00 0.00 50 1015.1
20260903192330 97 30 0.9 3.5 0.00 0.00 0.00 50 1015.0
20260903192236 97 50 0.9 3.5 0.00 0.00 0.00 50 1015.0
20260903192124 97 275 1.7 3.5 0.00 0.00 0.00 50 1015.0
20260903192030 97 210 1.7 6.1 0.00 0.00 0.00 50 1015.1
20260903191935 96 234 1.7 7.0 0.00 0.00 0.00 51 1015.1
20260903191823 96 205 0.9 7.0 0.00 0.00 0.00 51 1015.1
20260903191758 96 250 0.9 7.0 0.00 0.00 0.00 51 1015.1
20260903191531 96 334 0.9 7.0 0.00 0.00 0.00 50 1015.2
20260903191439 96 40 2.6 7.0 0.00 0.00 0.00 52 1015.3
20260903191325 96 104 3.5 7.0 0.00 0.00 0.00 52 1015.3
20260903191232 96 120 4.3 7.0 0.00 0.00 0.00 53 1015.3
20260903191123 96 130 3.5 7.0 0.00 0.00 0.00 52 1015.3
20260903191050 96 109 1.7 7.0 0.00 0.00 0.00 50 1015.4
20260903190957 96 112 0.9 1.7 0.00 0.00 0.00 51 1015.4
20260903190821 96 221 0.9 2.6 0.00 0.00 0.00 51 1015.4
20260903190729 96 184 0.0 4.3 0.00 0.00 0.00 51 1015.5
20260903190634 96 144 0.9 4.3 0.00 0.00 0.00 50 1015.5
20260903190546 96 144 0.9 4.3 0.00 0.00 0.00 51 1015.4
20260903190431 96 144 0.0 4.3 0.00 0.00 0.00 50 1015.5
20260903190357 96 144 0.0 4.3 0.00 0.00 0.00 50 1015.5
20260903190328 96 144 0.9 7.0 0.00 0.00 0.00 50 1015.4
20260903190038 96 144 2.6 7.0 0.00 0.00 0.00 53 1015.6
20260903185924 96 190 2.6 7.0 0.00 0.00 0.00 52 1015.5
20260903185836 96 191 2.6 7.8 0.00 0.00 0.00 54 1015.5
20260903185722 96 109 2.6 7.8 0.00 0.00 0.00 53 1015.6
20260903185628 96 130 3.5 7.8 0.00 0.00 0.00 53 1015.6
20260903185535 96 134 3.5 7.8 0.00 0.00 0.00 52 1015.5
20260903185422 96 136 4.3 7.8 0.00 0.00 0.00 52 1015.5
20260903185333 96 136 4.3 7.8 0.00 0.00 0.00 53 1015.5
20260903185219 96 176 4.3 7.8 0.00 0.00 0.00 54 1015.6
20260903185127 96 187 5.2 7.8 0.00 0.00 0.00 55 1015.5
20260903185035 96 178 6.1 7.8 0.00 0.00 0.00 54 1015.5
20260903184942 96 142 3.5 7.0 0.00 0.00 0.00 55 1015.6
20260903184828 96 119 1.7 7.0 0.00 0.00 0.00 54 1015.5
20260903184802 96 118 0.9 2.6 0.00 0.00 0.00 52 1015.5
20260903184536 95 49 1.7 2.6 0.00 0.00 0.00 51 1015.7
20260903184423 95 98 1.7 3.5 0.00 0.00 0.00 51 1015.6
20260903184330 95 164 0.9 3.5 0.00 0.00 0.00 52 1015.6
20260903184220 95 232 0.9 4.3 0.00 0.00 0.00 51 1015.6
20260903184128 95 273 0.9 4.3 0.00 0.00 0.00 51 1015.6
20260903184035 95 273 1.7 4.3 0.00 0.00 0.00 51 1015.8
20260903183942 96 274 1.7 4.3 0.00 0.00 0.00 51 1015.8
20260903183827 96 276 1.7 4.3 0.00 0.00 0.00 51 1015.7
20260903183733 96 276 1.7 4.3 0.00 0.00 0.00 51 1015.7
20260903183624 96 304 1.7 4.3 0.00 0.00 0.00 51 1015.7
20260903183529 96 290 2.6 4.3 0.00 0.00 0.00 51 1015.7
20260903183436 96 36 2.6 5.2 0.00 0.00 0.00 51 1015.6
20260903183323 96 44 1.7 7.0 0.00 0.00 0.00 51 1015.7
20260903183253 96 5 2.6 7.0 0.00 0.00 0.00 51 1015.7
20260903183050 96 84 2.6 7.0 0.00 0.00 0.00 50 1015.8
20260903182937 96 122 2.6 7.0 0.00 0.00 0.00 50 1015.8
20260903182823 96 48 2.6 7.0 0.00 0.00 0.00 50 1015.8
20260903182731 96 74 2.6 7.0 0.00 0.00 0.00 49 1015.9
20260903182638 96 70 2.6 7.0 0.00 0.00 0.00 50 1015.9
20260903182524 97 65 2.6 7.0 0.00 0.00 0.00 51 1015.8
20260903182450 97 119 3.5 7.0 0.00 0.00 0.00 50 1015.9
20260903182320 97 83 3.5 7.0 0.00 0.00 0.00 51 1015.8
20260903182225 97 113 3.5 7.0 0.00 0.00 0.00 50 1015.8
20260903182132 97 67 4.3 7.0 0.00 0.00 0.00 51 1015.9
20260903182019 97 74 4.3 7.0 0.00 0.00 0.00 51 1015.9
20260903181926 97 71 4.3 7.0 0.00 0.00 0.00 52 1015.9
20260903181837 97 103 3.5 7.0 0.00 0.00 0.00 52 1015.9
20260903181808 97 54 2.6 5.2 0.00 0.00 0.00 52 1015.9
20260903181542 96 82 0.9 5.2 0.00 0.00 0.00 53 1016.0
20260903181448 96 28 0.9 5.2 0.00 0.00 0.00 51 1016.1
20260903181335 96 322 0.9 5.2 0.00 0.00 0.00 53 1016.0
20260903181225 96 355 0.9 5.2 0.00 0.00 0.00 51 1016.1
20260903181131 96 19 1.7 5.2 0.00 0.00 0.00 51 1016.1
20260903181018 96 355 2.6 5.2 0.00 0.00 0.00 51 1016.1
20260903180925 97 355 3.5 5.2 0.00 0.00 0.00 52 1016.0
20260903180833 97 312 3.5 5.2 0.00 0.00 0.00 51 1016.2
20260903180740 97 355 2.6 6.1 0.00 0.00 0.00 51 1016.2
20260903180631 97 318 1.7 4.3 0.00 0.00 0.00 50 1016.2
20260903180519 97 144 1.7 6.1 0.00 0.00 0.00 53 1016.2
20260903180427 97 162 1.7 6.1 0.00 0.00 0.00 51 1016.2
20260903180354 97 124 2.6 7.8 0.00 0.00 0.00 51 1016.1
20260903180303 97 136 2.6 7.8 0.00 0.00 0.00 51 1016.1
20260903180020 98 95 2.6 7.8 0.00 0.00 0.00 50 1016.2
20260903175927 98 130 2.6 7.8 0.00 0.00 0.00 51 1016.2
20260903175833 98 129 2.6 7.8 0.00 0.00 0.00 49 1016.1
20260903175720 98 30 3.5 7.8 0.00 0.00 0.00 49 1016.2
20260903175627 98 43 4.3 7.8 0.00 0.00 0.00 49 1016.2
20260903175532 98 49 4.3 7.8 0.00 0.00 0.00 49 1016.2
20260903175443 98 90 3.5 7.0 0.00 0.00 0.00 51 1016.2
20260903175331 98 32 2.6 6.1 0.00 0.00 0.00 49 1016.3
20260903175217 98 39 1.7 6.1 0.00 0.00 0.00 52 1016.2
20260903175123 98 60 1.7 6.1 0.00 0.00 0.00 50 1016.3
20260903175050 98 16 3.5 6.1 0.00 0.00 0.00 52 1016.2
20260903174935 98 53 4.3 7.0 0.00 0.00 0.00 51 1016.3
20260903174826 98 48 3.5 6.1 0.00 0.00 0.00 53 1016.2
20260903174757 98 24 2.6 5.2 0.00 0.00 0.00 51 1016.2
20260903174550 98 49 1.7 6.1 0.00 0.00 0.00 55 1016.2
20260903174417 98 355 1.7 6.1 0.00 0.00 0.00 53 1016.3
20260903174321 98 327 2.6 6.1 0.00 0.00 0.00 52 1016.3
20260903174248 98 355 1.7 6.1 0.00 0.00 0.00 54 1016.3
20260903174134 98 337 1.7 6.1 0.00 0.00 0.00 51 1016.3
20260903174040 98 39 1.7 7.8 0.00 0.00 0.00 53 1016.3
20260903173926 98 39 2.6 7.8 0.00 0.00 0.00 52 1016.3
20260903173834 98 42 3.5 7.8 0.00 0.00 0.00 53 1016.3
20260903173721 98 32 4.3 7.8 0.00 0.00 0.00 52 1016.4
20260903173628 98 45 3.5 7.8 0.00 0.00 0.00 51 1016.4
20260903173517 98 86 3.5 7.8 0.00 0.00 0.00 52 1016.4
20260903173424 98 40 3.5 7.8 0.00 0.00 0.00 54 1016.4
20260903173351 98 35 3.5 7.8 0.00 0.00 0.00 54 1016.5
20260903173259 98 9 2.6 7.8 0.00 0.00 0.00 53 1016.5
20260903173032 98 55 0.9 7.0 0.00 0.00 0.00 51 1016.4
20260903172922 98 269 0.9 7.0 0.00 0.00 0.00 52 1016.5
20260903172830 98 89 0.9 7.0 0.00 0.00 0.00 50 1016.5
20260903172737 98 94 2.6 7.0 0.00 0.00 0.00 50 1016.5
20260903172622 98 90 3.5 7.0 0.00 0.00 0.00 51 1016.5
20260903172530 98 65 3.5 7.0 0.00 0.00 0.00 54 1016.5
20260903172419 98 91 4.3 7.0 0.00 0.00 0.00 55 1016.5
20260903172325 98 100 2.6 7.0 0.00 0.00 0.00 56 1016.5
20260903172233 98 171 1.7 6.1 0.00 0.00 0.00 56 1016.5
20260903172139 98 29 1.7 4.3 0.00 0.00 0.00 52 1016.6
20260903172024 98 82 1.7 4.3 0.00 0.00 0.00 54 1016.6
20260903171951 97 348 2.6 4.3 0.00 0.00 0.00 52 1016.6
20260903171817 97 267 2.6 4.3 0.00 0.00 0.00 54 1016.6
20260903171753 97 236 2.6 4.3 0.00 0.00 0.00 54 1016.6
20260903171525 97 347 2.6 4.3 0.00 0.00 0.00 53 1016.7
20260903171433 97 340 2.6 5.2 0.00 0.00 0.00 52 1016.7
20260903171320 97 349 1.7 5.2 0.00 0.00 0.00 53 1016.8
20260903171231 97 304 1.7 5.2 0.00 0.00 0.00 54 1016.7
20260903171117 97 10 2.6 5.2 0.00 0.00 0.00 55 1016.8
20260903171043 97 9 2.6 5.2 0.00 0.00 0.00 56 1016.7
20260903170929 97 344 3.5 5.2 0.00 0.00 0.00 58 1016.8
20260903170836 97 339 2.6 5.2 0.00 0.00 0.00 56 1016.8
20260903170742 97 10 2.6 5.2 0.00 0.00 0.00 52 1016.7
20260903170629 97 153 3.5 5.2 0.00 0.00 0.00 54 1016.8
20260903170540 97 51 2.6 5.2 0.00 0.00 0.00 55 1016.7
20260903170425 97 24 2.6 5.2 0.00 0.00 0.00 54 1016.8
20260903170332 97 35 2.6 5.2 0.00 0.00 0.00 55 1016.8
20260903170303 97 27 1.7 5.2 0.00 0.00 0.00 55 1016.8
20260903170019 97 30 2.6 5.2 0.00 0.00 0.00 56 1016.9
20260903165926 97 5 3.5 5.2 0.00 0.00 0.00 57 1016.9
20260903165832 96 5 3.5 5.2 0.00 0.00 0.00 60 1016.8
20260903165720 96 37 2.6 5.2 0.00 0.00 0.00 59 1016.8
20260903165627 96 9 1.7 5.2 0.00 0.00 0.00 59 1016.9
20260903165534 96 334 1.7 4.3 0.00 0.00 0.00 57 1017.0
20260903165424 96 332 1.7 5.2 0.00 0.00 0.00 57 1017.0
20260903165330 96 294 2.6 5.2 0.00 0.00 0.00 59 1016.9
20260903165256 96 360 3.5 5.2 0.00 0.00 0.00 59 1016.9
20260903165122 96 65 1.7 5.2 0.00 0.00 0.00 58 1017.0
20260903165028 96 36 0.9 5.2 0.00 0.00 0.00 56 1016.9
20260903164935 96 75 1.7 5.2 0.00 0.00 0.00 58 1017.0
20260903164847 96 52 2.6 5.2 0.00 0.00 0.00 57 1017.0
20260903164755 96 33 2.6 5.2 0.00 0.00 0.00 56 1017.0
20260903164548 96 194 2.6 5.2 0.00 0.00 0.00 55 1017.0
20260903164435 96 205 1.7 5.2 0.00 0.00 0.00 56 1017.0
20260903164341 96 166 0.9 5.2 0.00 0.00 0.00 57 1017.0
20260903164227 96 142 1.7 5.2 0.00 0.00 0.00 57 1017.1
20260903164118 96 96 1.7 5.2 0.00 0.00 0.00 57 1017.1
20260903164025 96 86 2.6 5.2 0.00 0.00 0.00 53 1017.1
20260903163932 96 111 2.6 5.2 0.00 0.00 0.00 55 1017.0
20260903163817 96 79 1.7 5.2 0.00 0.00 0.00 55 1017.0
20260903163723 96 90 1.7 5.2 0.00 0.00 0.00 57 1017.1
20260903163635 96 45 2.6 5.2 0.00 0.00 0.00 56 1017.0
20260903163520 96 24 1.7 5.2 0.00 0.00 0.00 55 1017.2
20260903163428 96 134 1.7 5.2 0.00 0.00 0.00 55 1017.1
20260903163334 96 134 1.7 7.0 0.00 0.00 0.00 58 1017.1
20260903163305 96 133 1.7 7.0 0.00 0.00 0.00 58 1017.1
20260903163041 96 325 1.7 7.0 0.00 0.00 0.00 58 1017.1
20260903162926 96 13 2.6 7.0 0.00 0.00 0.00 59 1017.1
20260903162832 96 46 2.6 7.0 0.00 0.00 0.00 59 1017.1
20260903162757 96 32 2.6 7.0 0.00 0.00 0.00 60 1017.1
20260903162623 96 10 3.5 7.0 0.00 0.00 0.00 59 1017.1
20260903162549 96 355 3.5 7.0 0.00 0.00 0.00 59 1017.2
20260903162436 95 19 3.5 7.0 0.00 0.00 0.00 59 1017.2
20260903162348 95 5 1.7 5.2 0.00 0.00 0.00 61 1017.2
20260903162233 95 137 2.6 5.2 0.00 0.00 0.00 60 1017.2
20260903162122 95 133 2.6 5.2 0.00 0.00 0.00 61 1017.2
20260903162029 95 108 1.7 5.2 0.00 0.00 0.00 60 1017.2
20260903161935 95 55 0.9 4.3 0.00 0.00 0.00 58 1017.2
20260903161903 95 157 0.9 4.3 0.00 0.00 0.00 58 1017.2
20260903161817 95 211 0.9 4.3 0.00 0.00 0.00 58 1017.2
20260903161529 95 295 1.7 4.3 0.00 0.00 0.00 58 1017.3
20260903161436 95 288 2.6 4.3 0.00 0.00 0.00 59 1017.4
20260903161342 95 335 1.7 3.5 0.00 0.00 0.00 61 1017.3
20260903161227 95 336 0.9 4.3 0.00 0.00 0.00 59 1017.4
20260903161133 95 336 0.9 4.3 0.00 0.00 0.00 59 1017.3
20260903161024 95 94 1.7 4.3 0.00 0.00 0.00 58 1017.3
20260903160931 95 58 1.7 4.3 0.00 0.00 0.00 58 1017.3
20260903160817 95 51 1.7 5.2 0.00 0.00 0.00 59 1017.4
20260903160723 95 39 1.7 7.0 0.00 0.00 0.00 58 1017.3
20260903160630 95 21 1.7 7.0 0.00 0.00 0.00 58 1017.3
20260903160522 95 45 2.6 7.0 0.00 0.00 0.00 60 1017.4
20260903160429 95 28 2.6 7.0 0.00 0.00 0.00 59 1017.5
20260903160337 95 37 2.6 7.0 0.00 0.00 0.00 58 1017.4
20260903160307 95 5 2.6 7.0 0.00 0.00 0.00 58 1017.4
20260903160040 95 79 2.6 7.0 0.00 0.00 0.00 58 1017.4
20260903155946 95 16 2.6 7.0 0.00 0.00 0.00 58 1017.4
20260903155835 95 56 2.6 5.2 0.00 0.00 0.00 58 1017.4
20260903155721 95 51 3.5 5.2 0.00 0.00 0.00 59 1017.4
20260903155629 95 56 2.6 7.0 0.00 0.00 0.00 59 1017.4
20260903155536 95 338 1.7 7.0 0.00 0.00 0.00 59 1017.4
20260903155422 95 89 2.6 7.0 0.00 0.00 0.00 60 1017.4
20260903155350 95 73 2.6 7.0 0.00 0.00 0.00 59 1017.4
20260903155219 95 46 1.7 7.0 0.00 0.00 0.00 59 1017.5
20260903155126 95 49 1.7 7.0 0.00 0.00 0.00 58 1017.4
20260903155032 95 34 2.6 7.0 0.00 0.00 0.00 62 1017.4
20260903154917 95 42 2.6 7.0 0.00 0.00 0.00 61 1017.4
20260903154825 95 40 0.9 7.0 0.00 0.00 0.00 58 1017.5
20260903154759 95 30 0.9 5.2 0.00 0.00 0.00 58 1017.5
20260903154533 95 148 1.7 5.2 0.00 0.00 0.00 59 1017.4
20260903154420 95 121 1.7 5.2 0.00 0.00 0.00 60 1017.4
20260903154327 95 120 1.7 5.2 0.00 0.00 0.00 60 1017.4
20260903154218 95 26 1.7 5.2 0.00 0.00 0.00 59 1017.5
20260903154125 95 78 1.7 5.2 0.00 0.00 0.00 58 1017.5
20260903154033 95 33 2.6 5.2 0.00 0.00 0.00 59 1017.5
20260903153919 95 20 2.6 3.5 0.00 0.00 0.00 59 1017.4
20260903153826 95 355 1.7 4.3 0.00 0.00 0.00 59 1017.4
20260903153733 95 350 1.7 5.2 0.00 0.00 0.00 59 1017.4
20260903153625 95 309 1.7 5.2 0.00 0.00 0.00 59 1017.4
20260903153530 95 315 1.7 5.2 0.00 0.00 0.00 61 1017.4
20260903153418 95 5 1.7 5.2 0.00 0.00 0.00 59 1017.4
20260903153345 95 329 1.7 5.2 0.00 0.00 0.00 59 1017.5
20260903153316 94 355 2.6 5.2 0.00 0.00 0.00 59 1017.5
20260903153031 94 47 3.5 5.2 0.00 0.00 0.00 60 1017.4
20260903152919 94 35 3.5 5.2 0.00 0.00 0.00 60 1017.4
20260903152826 94 40 2.6 5.2 0.00 0.00 0.00 60 1017.4
20260903152732 94 46 2.6 5.2 0.00 0.00 0.00 62 1017.3
20260903152639 94 44 2.6 5.2 0.00 0.00 0.00 61 1017.4
20260903152544 94 55 0.9 5.2 0.00 0.00 0.00 60 1017.5
20260903152435 94 59 0.0 5.2 0.00 0.00 0.00 59 1017.4
20260903152322 94 89 0.9 5.2 0.00 0.00 0.00 61 1017.4
20260903152229 94 76 1.7 5.2 0.00 0.00 0.00 62 1017.4
20260903152117 94 30 3.5 5.2 0.00 0.00 0.00 61 1017.4
20260903152023 94 36 4.3 5.2 0.00 0.00 0.00 61 1017.4
20260903151932 94 42 3.5 5.2 0.00 0.00 0.00 61 1017.5
20260903151843 94 37 2.6 5.2 0.00 0.00 0.00 61 1017.4
20260903151813 94 37 2.6 5.2 0.00 0.00 0.00 60 1017.4
20260903151524 94 52 3.5 5.2 0.00 0.00 0.00 62 1017.4
20260903151432 94 65 2.6 5.2 0.00 0.00 0.00 62 1017.3
20260903151322 94 355 2.6 3.5 0.00 0.00 0.00 61 1017.4
20260903151229 94 342 1.7 3.5 0.00 0.00 0.00 61 1017.4
20260903151136 94 11 0.9 3.5 0.00 0.00 0.00 60 1017.4
20260903151023 94 348 0.9 3.5 0.00 0.00 0.00 60 1017.4
20260903150930 94 305 0.9 3.5 0.00 0.00 0.00 61 1017.3
20260903150857 94 305 1.7 3.5 0.00 0.00 0.00 60 1017.3
20260903150742 94 311 1.7 5.2 0.00 0.00 0.00 61 1017.3
20260903150633 94 346 2.6 5.2 0.00 0.00 0.00 61 1017.3
20260903150540 93 333 1.7 5.2 0.00 0.00 0.00 59 1017.3
20260903150426 93 342 0.9 5.2 0.00 0.00 0.00 60 1017.2
20260903150332 93 349 0.9 5.2 0.00 0.00 0.00 59 1017.3
20260903150305 93 349 1.7 5.2 0.00 0.00 0.00 59 1017.3
20260903150044 93 86 2.6 5.2 0.00 0.00 0.00 60 1017.3
20260903145948 93 42 2.6 5.2 0.00 0.00 0.00 61 1017.3
20260903145835 93 5 1.7 4.3 0.00 0.00 0.00 59 1017.3
20260903145721 93 32 0.9 2.6 0.00 0.00 0.00 60 1017.3
20260903145629 92 43 0.9 2.6 0.00 0.00 0.00 59 1017.3
20260903145535 92 58 0.9 2.6 0.00 0.00 0.00 60 1017.3
20260903145425 92 43 0.9 3.5 0.00 0.00 0.00 62 1017.2
20260903145332 92 32 1.7 3.5 0.00 0.00 0.00 62 1017.2
20260903145239 92 33 2.6 3.5 0.00 0.00 0.00 62 1017.2
20260903145126 92 26 1.7 3.5 0.00 0.00 0.00 62 1017.3
20260903145032 91 32 0.9 3.5 0.00 0.00 0.00 62 1017.2
20260903144920 91 63 0.9 3.5 0.00 0.00 0.00 62 1017.2
20260903144830 91 34 1.7 3.5 0.00 0.00 0.00 62 1017.3
20260903144801 91 34 1.7 3.5 0.00 0.00 0.00 64 1017.3
20260903144533 91 36 1.7 3.5 0.00 0.00 0.00 65 1017.2
20260903144438 91 316 0.9 1.7 0.00 0.00 0.00 65 1017.2
20260903144325 91 302 0.9 1.7 0.00 0.00 0.00 65 1017.1
20260903144257 91 311 0.9 1.7 0.00 0.00 0.00 64 1017.1
20260903144123 91 306 0.9 1.7 0.00 0.00 0.00 64 1017.1
20260903144030 91 292 0.9 1.7 0.00 0.00 0.00 64 1017.2
20260903143936 91 292 0.9 1.7 0.00 0.00 0.00 64 1017.2
20260903143822 91 309 0.9 1.7 0.00 0.00 0.00 64 1017.2
20260903143729 91 329 0.9 1.7 0.00 0.00 0.00 64 1017.2
20260903143619 91 309 0.0 1.7 0.00 0.00 0.00 63 1017.2
20260903143525 91 268 0.0 1.7 0.00 0.00 0.00 64 1017.2
20260903143432 91 268 0.0 2.6 0.00 0.00 0.00 64 1017.1
20260903143320 91 268 0.0 2.6 0.00 0.00 0.00 64 1017.2
20260903143254 91 268 0.0 2.6 0.00 0.00 0.00 64 1017.2
20260903143026 91 268 0.9 2.6 0.00 0.00 0.00 65 1017.2
20260903142953 91 268 0.9 2.6 0.00 0.00 0.00 65 1017.2
20260903142818 91 254 0.9 2.6 0.00 0.00 0.00 67 1017.2
20260903142726 91 255 0.9 2.6 0.00 0.00 0.00 67 1017.2
20260903142633 91 255 1.7 2.6 0.00 0.00 0.00 66 1017.2
20260903142523 91 260 1.7 2.6 0.00 0.00 0.00 66 1017.2
20260903142429 91 271 1.7 2.6 0.00 0.00 0.00 66 1017.2
20260903142336 91 254 1.7 2.6 0.00 0.00 0.00 67 1017.2
20260903142222 90 263 0.9 2.6 0.00 0.00 0.00 67 1017.3
20260903142149 90 254 0.9 2.6 0.00 0.00 0.00 67 1017.2
20260903142036 90 254 0.0 1.7 0.00 0.00 0.00 67 1017.2
20260903141928 90 232 0.0 1.7 0.00 0.00 0.00 68 1017.2
20260903141836 90 232 0.0 1.7 0.00 0.00 0.00 67 1017.2
20260903141807 90 232 0.0 1.7 0.00 0.00 0.00 68 1017.2
20260903141520 89 232 0.0 2.6 0.00 0.00 0.00 69 1017.2
20260903141425 89 232 0.0 2.6 0.00 0.00 0.00 69 1017.2
20260903141317 89 232 0.9 2.6 0.00 0.00 0.00 71 1017.2
20260903141244 89 232 0.0 2.6 0.00 0.00 0.00 70 1017.2
20260903141150 89 259 0.0 2.6 0.00 0.00 0.00 69 1017.3
20260903141035 89 265 0.0 2.6 0.00 0.00 0.00 70 1017.4
20260903140922 89 265 0.9 2.6 0.00 0.00 0.00 71 1017.3
20260903140829 89 265 0.9 2.6 0.00 0.00 0.00 70 1017.2
20260903140720 89 273 0.9 2.6 0.00 0.00 0.00 71 1017.3
20260903140627 89 292 1.7 2.6 0.00 0.00 0.00 72 1017.3
20260903140533 89 268 1.7 2.6 0.00 0.00 0.00 71 1017.3
20260903140419 88 262 1.7 2.6 0.00 0.00 0.00 71 1017.4
20260903140326 88 264 0.9 2.6 0.00 0.00 0.00 71 1017.4
20260903140301 88 250 0.9 3.5 0.00 0.00 0.00 71 1017.4
20260903140034 88 268 0.9 3.5 0.00 0.00 0.00 71 1017.3
20260903135920 88 292 1.7 3.5 0.00 0.00 0.00 72 1017.5
20260903135827 88 287 1.7 3.5 0.00 0.00 0.00 71 1017.4
20260903135734 88 304 1.7 3.5 0.00 0.00 0.00 72 1017.4
20260903135625 87 290 1.7 3.5 0.00 0.00 0.00 72 1017.4
20260903135534 87 319 1.7 3.5 0.00 0.00 0.00 72 1017.4
20260903135419 87 275 0.9 3.5 0.00 0.00 0.00 73 1017.4
20260903135328 87 252 0.9 3.5 0.00 0.00 0.00 73 1017.3
20260903135235 87 199 1.7 3.5 0.00 0.00 0.00 72 1017.4
20260903135120 87 211 1.7 3.5 0.00 0.00 0.00 73 1017.4
20260903135047 87 246 0.9 2.6 0.00 0.00 0.00 74 1017.3
20260903134918 87 278 0.0 1.7 0.00 0.00 0.00 73 1017.4
20260903134825 87 278 0.9 2.6 0.00 0.00 0.00 73 1017.4
20260903134757 87 278 0.9 2.6 0.00 0.00 0.00 74 1017.4
20260903134529 86 275 0.9 2.6 0.00 0.00 0.00 74 1017.3
20260903134420 86 275 0.9 2.6 0.00 0.00 0.00 74 1017.3
20260903134328 86 306 0.9 2.6 0.00 0.00 0.00 74 1017.3
20260903134235 86 306 1.7 2.6 0.00 0.00 0.00 74 1017.4
20260903134141 86 301 1.7 2.6 0.00 0.00 0.00 74 1017.4
20260903134028 86 301 1.7 2.6 0.00 0.00 0.00 74 1017.3
20260903133956 86 295 1.7 2.6 0.00 0.00 0.00 74 1017.3
20260903133825 86 290 0.9 2.6 0.00 0.00 0.00 74 1017.4
20260903133731 86 296 0.9 2.6 0.00 0.00 0.00 74 1017.3
20260903133617 86 277 1.7 2.6 0.00 0.00 0.00 74 1017.3
20260903133545 86 305 0.9 2.6 0.00 0.00 0.00 74 1017.3
20260903133430 86 290 0.9 2.6 0.00 0.00 0.00 75 1017.3
20260903133319 86 273 0.9 2.6 0.00 0.00 0.00 75 1017.3
20260903133253 86 296 0.9 2.6 0.00 0.00 0.00 75 1017.3
20260903133027 85 268 1.7 2.6 0.00 0.00 0.00 75 1017.3
20260903132935 85 279 0.9 2.6 0.00 0.00 0.00 75 1017.3
20260903132842 85 296 0.9 2.6 0.00 0.00 0.00 76 1017.3
20260903132726 85 296 0.9 2.6 0.00 0.00 0.00 76 1017.3
20260903132617 85 273 1.7 2.6 0.00 0.00 0.00 76 1017.3
20260903132524 85 294 1.7 2.6 0.00 0.00 0.00 76 1017.2
20260903132431 85 296 1.7 2.6 0.00 0.00 0.00 76 1017.3
20260903132339 85 302 0.9 1.7 0.00 0.00 0.00 77 1017.2
20260903132223 85 286 0.9 1.7 0.00 0.00 0.00 78 1017.3
20260903132130 85 272 0.9 1.7 0.00 0.00 0.00 78 1017.3
20260903132022 84 300 0.9 1.7 0.00 0.00 0.00 78 1017.3
20260903131948 84 328 0.9 1.7 0.00 0.00 0.00 78 1017.3
20260903131836 84 338 0.9 1.7 0.00 0.00 0.00 78 1017.3
20260903131806 84 338 0.0 1.7 0.00 0.00 0.00 78 1017.3
20260903131519 83 338 0.0 1.7 0.00 0.00 0.00 79 1017.4
20260903131430 83 338 0.0 1.7 0.00 0.00 0.00 79 1017.4
20260903131317 83 338 0.0 1.7 0.00 0.00 0.00 79 1017.3
20260903131242 83 338 0.0 1.7 0.00 0.00 0.00 78 1017.3
20260903131128 83 338 0.0 1.7 0.00 0.00 0.00 78 1017.3
20260903131016 83 338 0.0 1.7 0.00 0.00 0.00 79 1017.4
20260903130923 82 338 0.9 1.7 0.00 0.00 0.00 80 1017.3
20260903130834 82 338 0.9 1.7 0.00 0.00 0.00 80 1017.4
20260903130720 82 338 0.9 1.7 0.00 0.00 0.00 81 1017.4
20260903130648 82 338 0.9 1.7 0.00 0.00 0.00 81 1017.3
20260903130535 82 338 0.9 1.7 0.00 0.00 0.00 81 1017.3
20260903130421 82 338 0.9 1.7 0.00 0.00 0.00 81 1017.3
20260903130303 82 338 0.9 1.7 0.00 0.00 0.00 82 1017.3
20260903130036 81 360 0.0 1.7 0.00 0.00 0.00 82 1017.3
20260903125922 81 360 0.0 0.0 0.00 0.00 0.00 83 1017.4
20260903125829 81 360 0.0 0.0 0.00 0.00 0.00 83 1017.4
20260903125755 81 360 0.0 0.0 0.00 0.00 0.00 83 1017.4
20260903125626 80 360 0.0 0.9 0.00 0.00 0.00 84 1017.4
20260903125534 80 360 0.0 0.9 0.00 0.00 0.00 84 1017.4
20260903125422 80 360 0.0 0.9 0.00 0.00 0.00 84 1017.4
20260903125329 80 360 0.0 1.7 0.00 0.00 0.00 84 1017.4
20260903125235 80 360 0.0 1.7 0.00 0.00 0.00 85 1017.4
20260903125122 80 360 0.0 1.7 0.00 0.00 0.00 84 1017.4
20260903125034 80 360 0.0 1.7 0.00 0.00 0.00 85 1017.4
20260903124942 79 360 0.0 2.6 0.00 0.00 0.00 85 1017.4
20260903124827 79 360 0.0 2.6 0.00 0.00 0.00 85 1017.4
20260903124759 79 360 0.0 2.6 0.00 0.00 0.00 85 1017.4
20260903124552 79 360 0.9 2.6 0.00 0.00 0.00 85 1017.3
20260903124442 79 360 0.9 3.5 0.00 0.00 0.00 85 1017.4
20260903124327 79 360 0.9 3.5 0.00 0.00 0.00 86 1017.4
20260903124235 79 360 0.9 3.5 0.00 0.00 0.00 86 1017.2
20260903124122 79 360 1.7 3.5 0.00 0.00 0.00 86 1017.3
20260903124028 78 360 1.7 3.5 0.00 0.00 0.00 87 1017.4
20260903123935 78 360 1.7 3.5 0.00 0.00 0.00 87 1017.4
20260903123827 78 360 1.7 3.5 0.00 0.00 0.00 87 1017.3
20260903123733 78 360 1.7 3.5 0.00 0.00 0.00 87 1017.3
20260903123640 78 5 1.7 3.5 0.00 0.00 0.00 87 1017.3
20260903123546 78 10 1.7 2.6 0.00 0.00 0.00 87 1017.4
20260903123433 78 48 1.7 2.6 0.00 0.00 0.00 87 1017.4
20260903123320 78 34 0.9 2.6 0.00 0.00 0.00 87 1017.3
20260903123255 78 34 0.9 2.6 0.00 0.00 0.00 88 1017.3
20260903123027 77 41 1.7 2.6 0.00 0.00 0.00 88 1017.3
20260903122935 77 41 1.7 2.6 0.00 0.00 0.00 88 1017.3
20260903122842 77 360 0.9 2.6 0.00 0.00 0.00 88 1017.2
20260903122727 77 360 1.7 2.6 0.00 0.00 0.00 88 1017.3
20260903122618 77 360 1.7 2.6 0.00 0.00 0.00 88 1017.2
20260903122526 77 360 1.7 2.6 0.00 0.00 0.00 89 1017.2
20260903122432 77 360 1.7 2.6 0.00 0.00 0.00 89 1017.2
20260903122318 77 360 1.7 3.5 0.00 0.00 0.00 89 1017.2
20260903122225 77 360 1.7 3.5 0.00 0.00 0.00 89 1017.2
20260903122118 76 360 1.7 3.5 0.00 0.00 0.00 89 1017.1
20260903122026 76 360 1.7 3.5 0.00 0.00 0.00 89 1017.1
20260903121932 76 360 1.7 3.5 0.00 0.00 0.00 89 1017.1
20260903121820 76 360 1.7 3.5 0.00 0.00 0.00 90 1017.1
20260903121751 76 360 1.7 4.3 0.00 0.00 0.00 90 1017.1
20260903121530 76 5 2.6 4.3 0.00 0.00 0.00 90 1017.1
20260903121436 76 342 2.6 4.3 0.00 0.00 0.00 90 1017.1
20260903121322 76 339 2.6 4.3 0.00 0.00 0.00 90 1017.1
20260903121228 76 333 2.6 4.3 0.00 0.00 0.00 90 1017.0
20260903121136 76 331 2.6 4.3 0.00 0.00 0.00 90 1017.1
20260903121028 76 347 2.6 4.3 0.00 0.00 0.00 90 1017.0
20260903120935 76 342 2.6 4.3 0.00 0.00 0.00 90 1017.0
20260903120823 76 333 2.6 4.3 0.00 0.00 0.00 90 1017.0
20260903120731 76 346 3.5 4.3 0.00 0.00 0.00 90 1017.1
20260903120619 75 333 2.6 3.5 0.00 0.00 0.00 90 1017.1
20260903120526 75 344 2.6 3.5 0.00 0.00 0.00 90 1017.0
20260903120438 75 344 2.6 3.5 0.00 0.00 0.00 90 1017.1
20260903120325 75 355 2.6 3.5 0.00 0.00 0.00 91 1017.1
20260903120256 75 331 2.6 4.3 0.00 0.00 0.00 91 1017.1
20260903120030 75 360 2.6 4.3 0.00 0.00 0.00 91 1017.0
20260903115921 75 5 2.6 4.3 0.00 0.00 0.00 91 1017.1
20260903115848 75 355 2.6 4.3 0.00 0.00 0.00 91 1017.0
20260903115734 75 348 2.6 4.3 0.00 0.00 0.00 91 1017.0
20260903115620 75 335 2.6 4.3 0.00 0.00 0.00 91 1017.0
20260903115527 75 333 2.6 4.3 0.00 0.00 0.00 91 1017.1
20260903115435 75 341 2.6 4.3 0.00 0.00 0.00 91 1017.0
20260903115326 75 348 2.6 4.3 0.00 0.00 0.00 91 1017.1
20260903115233 75 344 2.6 4.3 0.00 0.00 0.00 91 1017.0
20260903115121 75 345 1.7 3.5 0.00 0.00 0.00 91 1017.0
20260903115028 75 355 2.6 3.5 0.00 0.00 0.00 90 1017.0
20260903114936 75 348 2.6 3.5 0.00 0.00 0.00 90 1017.1
20260903114822 75 338 2.6 2.6 0.00 0.00 0.00 90 1017.0
20260903114756 75 339 2.6 2.6 0.00 0.00 0.00 90 1017.0
20260903114529 75 340 1.7 2.6 0.00 0.00 0.00 90 1017.1
20260903114456 75 329 1.7 2.6 0.00 0.00 0.00 89 1017.1
20260903114322 75 320 1.7 2.6 0.00 0.00 0.00 89 1017.2
20260903114249 75 350 1.7 2.6 0.00 0.00 0.00 89 1017.0
20260903114118 75 350 1.7 2.6 0.00 0.00 0.00 89 1017.1
20260903114026 75 350 0.9 2.6 0.00 0.00 0.00 89 1017.1
20260903113952 75 350 0.9 2.6 0.00 0.00 0.00 89 1017.0
20260903113819 75 350 0.9 2.6 0.00 0.00 0.00 89 1017.0
20260903113727 75 350 0.9 2.6 0.00 0.00 0.00 89 1017.1
20260903113653 75 350 0.9 2.6 0.00 0.00 0.00 90 1017.0
20260903113523 75 350 0.9 2.6 0.00 0.00 0.00 90 1016.9
20260903113430 75 350 1.7 2.6 0.00 0.00 0.00 90 1017.0
20260903113359 75 350 1.7 2.6 0.00 0.00 0.00 90 1017.0
20260903113309 75 350 1.7 2.6 0.00 0.00 0.00 90 1017.0
20260903113021 75 350 1.7 2.6 0.00 0.00 0.00 91 1017.0
20260903112932 75 350 1.7 2.6 0.00 0.00 0.00 91 1016.9
20260903112818 75 350 0.9 2.6 0.00 0.00 0.00 91 1016.9
20260903112725 75 350 0.0 0.9 0.00 0.00 0.00 91 1016.8
20260903112633 75 350 0.0 0.9 0.00 0.00 0.00 91 1016.8
20260903112519 75 350 0.0 0.9 0.00 0.00 0.00 91 1016.8
20260903112424 75 350 0.0 0.9 0.00 0.00 0.00 91 1016.8
20260903112335 75 350 0.0 0.9 0.00 0.00 0.00 91 1016.8
20260903112222 75 350 0.9 0.9 0.00 0.00 0.00 91 1016.8
20260903112129 75 350 0.0 0.9 0.00 0.00 0.00 91 1016.8
20260903112036 75 350 0.0 0.9 0.00 0.00 0.00 91 1016.8
20260903111924 75 350 0.0 0.9 0.00 0.00 0.00 91 1016.8
20260903111805 75 350 0.0 0.9 0.00 0.00 0.00 91 1016.8
20260903111518 75 350 0.0 1.7 0.00 0.00 0.00 91 1016.8
20260903111424 75 350 0.0 1.7 0.00 0.00 0.00 91 1016.8
20260903111350 75 350 0.0 1.7 0.00 0.00 0.00 91 1016.8
20260903111220 75 350 0.0 1.7 0.00 0.00 0.00 91 1016.8
20260903111127 75 350 0.9 1.7 0.00 0.00 0.00 91 1016.8
20260903111053 75 350 0.9 1.7 0.00 0.00 0.00 91 1016.7
20260903110919 75 350 0.9 1.7 0.00 0.00 0.00 91 1016.8
20260903110826 75 350 0.9 1.7 0.00 0.00 0.00 91 1016.7
20260903110732 75 350 0.9 1.7 0.00 0.00 0.00 91 1016.7
20260903110624 75 350 0.9 2.6 0.00 0.00 0.00 90 1016.7
20260903110530 75 350 0.9 2.6 0.00 0.00 0.00 90 1016.7
20260903110418 75 350 0.9 2.6 0.00 0.00 0.00 90 1016.7
20260903110324 75 350 0.9 2.6 0.00 0.00 0.00 90 1016.6
20260903110258 75 350 1.7 2.6 0.00 0.00 0.00 89 1016.6
20260903110031 75 350 1.7 2.6 0.00 0.00 0.00 89 1016.6
20260903105917 75 350 1.7 2.6 0.00 0.00 0.00 89 1016.5
20260903105825 75 350 1.7 2.6 0.00 0.00 0.00 89 1016.6
20260903105731 75 350 1.7 2.6 0.00 0.00 0.00 89 1016.6
20260903105618 75 350 1.7 2.6 0.00 0.00 0.00 89 1016.6
20260903105528 75 350 1.7 2.6 0.00 0.00 0.00 89 1016.5
20260903105436 75 350 1.7 2.6 0.00 0.00 0.00 89 1016.5
20260903105322 75 350 1.7 2.6 0.00 0.00 0.00 89 1016.5
20260903105229 75 350 1.7 2.6 0.00 0.00 0.00 89 1016.6
20260903105136 75 350 1.7 2.6 0.00 0.00 0.00 89 1016.5
20260903105028 75 350 1.7 2.6 0.00 0.00 0.00 89 1016.6
20260903104936 75 350 1.7 2.6 0.00 0.00 0.00 89 1016.6
20260903104843 75 350 1.7 1.7 0.00 0.00 0.00 89 1016.5
20260903104810 75 350 0.9 1.7 0.00 0.00 0.00 89 1016.5
20260903104523 75 350 1.7 1.7 0.00 0.00 0.00 88 1016.5
20260903104435 75 350 1.7 1.7 0.00 0.00 0.00 89 1016.5
20260903104321 75 350 0.9 1.7 0.00 0.00 0.00 89 1016.5
20260903104228 75 350 0.9 1.7 0.00 0.00 0.00 89 1016.5
20260903104135 75 350 0.9 1.7 0.00 0.00 0.00 89 1016.5
20260903104021 75 350 1.7 1.7 0.00 0.00 0.00 89 1016.6
20260903103929 75 350 1.7 1.7 0.00 0.00 0.00 89 1016.5
20260903103840 75 350 0.9 1.7 0.00 0.00 0.00 89 1016.5
20260903103726 75 350 0.9 1.7 0.00 0.00 0.00 89 1016.5
20260903103632 75 350 0.9 1.7 0.00 0.00 0.00 90 1016.5
20260903103520 75 350 0.9 1.7 0.00 0.00 0.00 90 1016.5
20260903103449 75 350 0.9 1.7 0.00 0.00 0.00 90 1016.4
20260903103308 75 350 0.9 1.7 0.00 0.00 0.00 90 1016.5
20260903103021 75 350 0.9 1.7 0.00 0.00 0.00 89 1016.5
20260903102949 75 350 0.9 1.7 0.00 0.00 0.00 89 1016.4
20260903102834 75 350 0.9 1.7 0.00 0.00 0.00 89 1016.5
20260903102720 75 350 0.9 1.7 0.00 0.00 0.00 89 1016.4
20260903102631 75 350 0.9 1.7 0.00 0.00 0.00 89 1016.5
20260903102518 75 350 0.0 1.7 0.00 0.00 0.00 90 1016.5
20260903102426 75 350 0.0 0.9 0.00 0.00 0.00 90 1016.4
20260903102335 75 350 0.0 0.9 0.00 0.00 0.00 90 1016.4
20260903102220 75 350 0.0 0.9 0.00 0.00 0.00 90 1016.4
20260903102131 75 350 0.0 0.9 0.00 0.00 0.00 90 1016.5
20260903102017 75 350 0.0 0.9 0.00 0.00 0.00 90 1016.4
20260903101925 75 350 0.0 0.9 0.00 0.00 0.00 90 1016.4
20260903101824 75 350 0.0 0.9 0.00 0.00 0.00 90 1016.4
20260903101519 75 350 0.0 0.0 0.00 0.00 0.00 90 1016.3
20260903101427 75 350 0.0 0.0 0.00 0.00 0.00 90 1016.4
20260903101354 75 350 0.0 0.0 0.00 0.00 0.00 90 1016.3
20260903101220 75 350 0.0 0.0 0.00 0.00 0.00 90 1016.4
20260903101127 75 350 0.0 0.0 0.00 0.00 0.00 90 1016.4
20260903101035 75 350 0.0 0.0 0.00 0.00 0.00 90 1016.3
20260903100925 75 350 0.0 0.0 0.00 0.00 0.00 90 1016.3
20260903100853 75 350 0.0 0.0 0.00 0.00 0.00 90 1016.3
20260903100719 75 350 0.0 0.0 0.00 0.00 0.00 90 1016.4
20260903100626 75 350 0.0 0.0 0.00 0.00 0.00 90 1016.3
20260903100534 75 350 0.0 0.0 0.00 0.00 0.00 90 1016.3
20260903100420 75 350 0.0 0.0 0.00 0.00 0.00 90 1016.3
20260903100331 75 350 0.0 0.0 0.00 0.00 0.00 90 1016.4
20260903100301 75 350 0.0 0.0 0.00 0.00 0.00 90 1016.4
20260903100034 75 350 0.0 0.0 0.00 0.00 0.00 90 1016.2
20260903095942 75 350 0.0 0.0 0.00 0.00 0.00 90 1016.3
20260903095849 75 350 0.0 0.0 0.00 0.00 0.00 90 1016.2
20260903095718 75 350 0.0 0.0 0.00 0.00 0.00 90 1016.2
20260903095626 75 350 0.0 0.0 0.00 0.00 0.00 90 1016.3
20260903095532 75 350 0.0 0.0 0.00 0.00 0.00 90 1016.2
20260903095439 75 350 0.0 0.0 0.00 0.00 0.00 90 1016.3
20260903095326 75 350 0.0 0.0 0.00 0.00 0.00 90 1016.2
20260903095232 75 350 0.0 0.0 0.00 0.00 0.00 90 1016.2
20260903095123 75 350 0.0 0.0 0.00 0.00 0.00 90 1016.2
20260903095031 75 350 0.0 0.0 0.00 0.00 0.00 90 1016.2
20260903094917 75 350 0.0 0.0 0.00 0.00 0.00 90 1016.3
20260903094844 75 350 0.0 0.0 0.00 0.00 0.00 90 1016.2
20260903094753 75 350 0.0 0.0 0.00 0.00 0.00 90 1016.2
20260903094551 75 350 0.0 0.0 0.00 0.00 0.00 90 1016.2
20260903094456 75 350 0.0 0.0 0.00 0.00 0.00 90 1016.2
20260903094321 75 350 0.0 0.0 0.00 0.00 0.00 90 1016.2
20260903094228 75 350 0.0 0.0 0.00 0.00 0.00 90 1016.2
20260903094134 75 350 0.0 0.0 0.00 0.00 0.00 90 1016.3
20260903094022 75 350 0.0 0.0 0.00 0.00 0.00 90 1016.2
20260903093951 75 350 0.0 0.0 0.00 0.00 0.00 90 1016.2
20260903093821 75 350 0.0 0.0 0.00 0.00 0.00 90 1016.2
20260903093727 75 350 0.0 0.0 0.00 0.00 0.00 90 1016.3
20260903093634 75 350 0.0 0.0 0.00 0.00 0.00 90 1016.2
20260903093521 75 350 0.0 0.0 0.00 0.00 0.00 90 1016.2
20260903093429 75 350 0.0 0.9 0.00 0.00 0.00 90 1016.2
20260903093321 75 350 0.0 0.9 0.00 0.00 0.00 90 1016.3
20260903093252 75 350 0.0 0.9 0.00 0.00 0.00 90 1016.3
20260903093025 75 350 0.0 0.9 0.00 0.00 0.00 90 1016.2
20260903092933 75 350 0.0 0.9 0.00 0.00 0.00 90 1016.2
20260903092823 75 350 0.0 0.9 0.00 0.00 0.00 90 1016.2
20260903092732 75 350 0.0 0.9 0.00 0.00 0.00 90 1016.2
20260903092618 75 350 0.0 0.9 0.00 0.00 0.00 90 1016.2
20260903092523 75 350 0.0 0.9 0.00 0.00 0.00 90 1016.2
20260903092431 75 350 0.0 1.7 0.00 0.00 0.00 90 1016.2
20260903092317 75 350 0.9 1.7 0.00 0.00 0.00 89 1016.2
20260903092229 75 350 0.9 1.7 0.00 0.00 0.00 89 1016.2
20260903092136 75 350 0.9 1.7 0.00 0.00 0.00 89 1016.1
20260903092024 75 350 0.9 1.7 0.00 0.00 0.00 89 1016.2
20260903091930 75 350 0.9 1.7 0.00 0.00 0.00 89 1016.2
20260903091817 75 350 0.9 1.7 0.00 0.00 0.00 89 1016.1
20260903091753 75 350 0.9 1.7 0.00 0.00 0.00 89 1016.1
20260903091525 75 350 0.9 1.7 0.00 0.00 0.00 89 1016.2
20260903091432 75 350 0.9 1.7 0.00 0.00 0.00 89 1016.2
20260903091318 75 350 0.9 1.7 0.00 0.00 0.00 89 1016.1
20260903091224 75 350 0.9 1.7 0.00 0.00 0.00 88 1016.2
20260903091136 75 350 0.9 1.7 0.00 0.00 0.00 89 1016.1
20260903091023 75 350 0.9 1.7 0.00 0.00 0.00 89 1016.2
20260903090931 75 350 0.9 1.7 0.00 0.00 0.00 89 1016.1
20260903090839 76 350 0.9 1.7 0.00 0.00 0.00 89 1016.1
20260903090724 75 350 0.9 1.7 0.00 0.00 0.00 89 1016.1
20260903090631 75 350 0.9 1.7 0.00 0.00 0.00 89 1016.1
20260903090522 76 350 0.9 1.7 0.00 0.00 0.00 88 1016.3
20260903090451 76 350 0.9 2.6 0.00 0.00 0.00 88 1016.2
20260903090308 76 350 0.9 2.6 0.00 0.00 0.00 88 1016.1
20260903090024 76 350 1.7 2.6 0.00 0.00 0.00 88 1016.2
20260903085930 76 350 1.7 2.6 0.00 0.00 0.00 88 1016.2
20260903085817 76 350 0.9 2.6 0.00 0.00 0.00 88 1016.1
20260903085724 76 350 0.9 2.6 0.00 0.00 0.00 88 1016.1
20260903085631 76 350 1.7 2.6 0.00 0.00 0.00 89 1016.2
20260903085538 76 350 1.7 2.6 0.00 0.00 0.00 88 1016.1
20260903085428 76 350 1.7 2.6 0.00 0.00 0.00 88 1016.2
20260903085356 76 350 0.9 2.6 0.00 0.00 0.00 88 1016.2
20260903085223 76 350 1.7 2.6 0.00 0.00 0.00 89 1016.2
20260903085130 76 350 1.7 2.6 0.00 0.00 0.00 89 1016.0
20260903085057 76 350 1.7 2.6 0.00 0.00 0.00 89 1016.1
20260903084922 76 350 1.7 2.6 0.00 0.00 0.00 89 1016.2
20260903084850 76 350 1.7 2.6 0.00 0.00 0.00 89 1016.1
20260903084802 76 350 1.7 2.6 0.00 0.00 0.00 89 1016.1
20260903084536 76 350 1.7 2.6 0.00 0.00 0.00 88 1016.1
20260903084423 76 350 0.9 1.7 0.00 0.00 0.00 88 1016.2
20260903084328 76 350 0.9 1.7 0.00 0.00 0.00 89 1016.1
20260903084219 76 350 0.9 1.7 0.00 0.00 0.00 89 1016.1
20260903084146 76 350 0.9 1.7 0.00 0.00 0.00 89 1016.1
20260903084033 76 350 0.9 1.7 0.00 0.00 0.00 89 1016.1
20260903083921 76 350 1.7 1.7 0.00 0.00 0.00 89 1016.1
20260903083826 76 350 1.7 1.7 0.00 0.00 0.00 89 1016.1
20260903083753 76 350 1.7 1.7 0.00 0.00 0.00 89 1016.0
20260903083639 76 350 0.9 1.7 0.00 0.00 0.00 88 1016.2
20260903083546 76 350 0.9 1.7 0.00 0.00 0.00 88 1016.1
20260903083436 76 350 1.7 1.7 0.00 0.00 0.00 88 1016.1
20260903083323 76 350 1.7 1.7 0.00 0.00 0.00 88 1016.1
20260903083254 76 350 1.7 1.7 0.00 0.00 0.00 86 1016.1
20260903083027 76 350 1.7 1.7 0.00 0.00 0.00 87 1016.1
20260903082917 76 350 1.7 1.7 0.00 0.00 0.00 86 1016.1
20260903082822 76 350 1.7 1.7 0.00 0.00 0.00 87 1016.0
20260903082750 76 350 1.7 1.7 0.00 0.00 0.00 87 1016.1
20260903082655 76 350 0.9 1.7 0.00 0.00 0.00 87 1016.1
20260903082519 76 350 0.0 1.7 0.00 0.00 0.00 87 1016.1
20260903082426 76 350 0.0 2.6 0.00 0.00 0.00 88 1016.1
20260903082318 76 350 0.9 2.6 0.00 0.00 0.00 87 1016.1
20260903082224 76 350 0.9 2.6 0.00 0.00 0.00 87 1016.2
20260903082130 76 350 0.9 2.6 0.00 0.00 0.00 87 1016.0
20260903082057 76 350 0.9 2.6 0.00 0.00 0.00 87 1016.1
20260903081925 76 350 1.7 2.6 0.00 0.00 0.00 87 1016.1
20260903081807 76 350 1.7 2.6 0.00 0.00 0.00 86 1016.1
20260903081519 76 350 1.7 2.6 0.00 0.00 0.00 86 1016.1
20260903081425 76 350 1.7 2.6 0.00 0.00 0.00 86 1016.0
20260903081334 76 350 1.7 2.6 0.00 0.00 0.00 87 1016.0
20260903081222 76 350 1.7 2.6 0.00 0.00 0.00 86 1016.0
20260903081133 76 350 1.7 2.6 0.00 0.00 0.00 86 1016.0
20260903081019 76 350 1.7 2.6 0.00 0.00 0.00 86 1016.1
20260903080945 76 350 1.7 2.6 0.00 0.00 0.00 86 1016.1
20260903080831 76 350 1.7 2.6 0.00 0.00 0.00 86 1016.0
20260903080718 76 350 1.7 2.6 0.00 0.00 0.00 87 1016.1
20260903080646 76 350 1.7 2.6 0.00 0.00 0.00 87 1016.1
20260903080517 76 350 1.7 2.6 0.00 0.00 0.00 87 1016.0
20260903080423 76 350 1.7 2.6 0.00 0.00 0.00 87 1016.1
20260903080301 76 350 0.9 1.7 0.00 0.00 0.00 87 1016.0
20260903080019 77 350 1.7 1.7 0.00 0.00 0.00 87 1016.1
20260903075927 77 350 0.9 1.7 0.00 0.00 0.00 87 1016.0
20260903075834 77 350 1.7 1.7 0.00 0.00 0.00 87 1016.1
20260903075721 77 350 0.9 1.7 0.00 0.00 0.00 87 1016.0
20260903075628 77 350 0.9 1.7 0.00 0.00 0.00 88 1016.1
20260903075535 77 350 0.9 1.7 0.00 0.00 0.00 88 1016.1
20260903075427 77 350 0.9 1.7 0.00 0.00 0.00 88 1016.1
20260903075353 77 350 0.9 1.7 0.00 0.00 0.00 88 1016.1
20260903075218 77 350 0.0 0.9 0.00 0.00 0.00 88 1016.1
20260903075127 77 350 0.0 0.9 0.00 0.00 0.00 88 1016.1
20260903075034 77 350 0.0 0.9 0.00 0.00 0.00 88 1016.1
20260903074942 77 350 0.0 1.7 0.00 0.00 0.00 88 1016.2
20260903074802 77 350 0.0 1.7 0.00 0.00 0.00 88 1016.2
20260903074535 77 350 0.0 1.7 0.00 0.00 0.00 88 1016.1
20260903074423 77 350 0.9 1.7 0.00 0.00 0.00 88 1016.2
20260903074330 77 350 0.9 2.6 0.00 0.00 0.00 88 1016.1
20260903074220 77 350 0.9 2.6 0.00 0.00 0.00 87 1016.2
20260903074127 77 350 0.9 2.6 0.00 0.00 0.00 87 1016.1
20260903074036 77 350 1.7 2.6 0.00 0.00 0.00 87 1016.1
20260903073923 77 350 1.7 2.6 0.00 0.00 0.00 86 1016.1
20260903073830 77 350 1.7 2.6 0.00 0.00 0.00 86 1016.1
20260903073719 77 350 0.9 2.6 0.00 0.00 0.00 86 1016.2
20260903073623 77 350 0.9 2.6 0.00 0.00 0.00 85 1016.1
20260903073529 77 350 1.7 2.6 0.00 0.00 0.00 85 1016.1
20260903073418 77 350 1.7 2.6 0.00 0.00 0.00 85 1016.2
20260903073324 77 350 1.7 2.6 0.00 0.00 0.00 85 1016.1
20260903073300 77 350 1.7 2.6 0.00 0.00 0.00 85 1016.1
20260903073033 77 350 1.7 2.6 0.00 0.00 0.00 85 1016.1
20260903072938 77 350 1.7 2.6 0.00 0.00 0.00 85 1016.1
20260903072824 77 350 1.7 2.6 0.00 0.00 0.00 85 1016.1
20260903072731 77 350 1.7 1.7 0.00 0.00 0.00 86 1016.1
20260903072657 77 350 1.7 1.7 0.00 0.00 0.00 86 1016.0
20260903072521 77 350 1.7 1.7 0.00 0.00 0.00 86 1016.1
20260903072451 77 350 1.7 1.7 0.00 0.00 0.00 86 1016.1
20260903072318 77 350 1.7 1.7 0.00 0.00 0.00 87 1016.0
20260903072245 77 350 0.9 1.7 0.00 0.00 0.00 87 1016.1
20260903072130 77 350 0.9 1.7 0.00 0.00 0.00 88 1016.1
20260903072017 77 350 0.9 1.7 0.00 0.00 0.00 87 1016.2
20260903071924 77 350 0.9 1.7 0.00 0.00 0.00 87 1016.1
20260903071835 77 350 0.9 1.7 0.00 0.00 0.00 87 1016.1
20260903071807 78 350 0.9 1.7 0.00 0.00 0.00 87 1016.1
20260903071519 77 350 0.9 1.7 0.00 0.00 0.00 87 1016.1
20260903071446 78 350 0.9 0.9 0.00 0.00 0.00 87 1016.2
20260903071332 77 350 0.9 0.9 0.00 0.00 0.00 86 1016.1
20260903071224 78 350 0.9 0.9 0.00 0.00 0.00 86 1016.1
20260903071151 78 350 0.9 0.9 0.00 0.00 0.00 86 1016.1
20260903071017 78 350 0.9 0.9 0.00 0.00 0.00 86 1016.2
20260903070923 78 350 0.9 0.9 0.00 0.00 0.00 86 1016.1
20260903070831 78 350 0.9 0.9 0.00 0.00 0.00 87 1016.1
20260903070757 78 350 0.9 0.9 0.00 0.00 0.00 87 1016.1
20260903070622 78 350 0.0 0.9 0.00 0.00 0.00 87 1016.1
20260903070532 78 350 0.0 0.9 0.00 0.00 0.00 87 1016.1
20260903070420 78 350 0.0 0.9 0.00 0.00 0.00 88 1016.1
20260903070326 78 350 0.0 0.9 0.00 0.00 0.00 88 1016.1
20260903070256 78 350 0.0 0.9 0.00 0.00 0.00 87 1016.1
20260903070032 78 350 0.0 0.9 0.00 0.00 0.00 88 1016.1
20260903065918 78 350 0.0 0.9 0.00 0.00 0.00 87 1016.1
20260903065826 78 350 0.0 0.9 0.00 0.00 0.00 87 1016.1
20260903065733 78 350 0.0 0.9 0.00 0.00 0.00 87 1016.1
20260903065638 78 350 0.9 0.9 0.00 0.00 0.00 87 1016.1
20260903065524 78 350 0.0 0.9 0.00 0.00 0.00 87 1016.1
20260903065435 78 350 0.0 0.9 0.00 0.00 0.00 87 1016.1
20260903065323 78 350 0.0 0.9 0.00 0.00 0.00 87 1016.0
20260903065228 78 350 0.0 0.9 0.00 0.00 0.00 87 1016.0
20260903065135 78 350 0.0 0.9 0.00 0.00 0.00 87 1016.1
20260903065021 78 350 0.0 0.9 0.00 0.00 0.00 87 1016.1
20260903064929 78 350 0.0 0.9 0.00 0.00 0.00 87 1016.1
20260903064810 78 350 0.0 0.9 0.00 0.00 0.00 87 1016.1
20260903064522 78 350 0.9 0.9 0.00 0.00 0.00 86 1016.2
20260903064429 78 350 0.9 0.9 0.00 0.00 0.00 86 1016.2
20260903064319 78 350 0.9 0.9 0.00 0.00 0.00 86 1016.2
20260903064226 78 350 0.9 0.9 0.00 0.00 0.00 86 1016.1
20260903064133 78 350 0.9 0.9 0.00 0.00 0.00 86 1016.2
20260903064021 78 350 0.9 0.9 0.00 0.00 0.00 86 1016.2
20260903063927 78 350 0.0 0.9 0.00 0.00 0.00 86 1016.2
20260903063854 78 350 0.0 0.9 0.00 0.00 0.00 87 1016.2
20260903063725 78 350 0.0 0.9 0.00 0.00 0.00 86 1016.2
20260903063633 78 350 0.0 0.9 0.00 0.00 0.00 86 1016.2
20260903063540 78 350 0.9 0.9 0.00 0.00 0.00 86 1016.3
20260903063426 78 350 0.0 0.9 0.00 0.00 0.00 86 1016.3
20260903063307 78 350 0.0 0.9 0.00 0.00 0.00 86 1016.2
20260903063020 78 350 0.0 0.0 0.00 0.00 0.00 86 1016.3
20260903062947 78 350 0.0 0.0 0.00 0.00 0.00 85 1016.2
20260903062854 78 350 0.0 0.0 0.00 0.00 0.00 85 1016.2
20260903062719 78 350 0.0 0.0 0.00 0.00 0.00 85 1016.2
20260903062645 78 350 0.0 0.0 0.00 0.00 0.00 86 1016.3
20260903062532 78 350 0.0 0.0 0.00 0.00 0.00 86 1016.2
20260903062422 78 350 0.0 0.0 0.00 0.00 0.00 86 1016.3
20260903062351 78 350 0.0 0.0 0.00 0.00 0.00 86 1016.2
20260903062257 78 350 0.0 0.0 0.00 0.00 0.00 86 1016.3
20260903062143 78 350 0.0 0.0 0.00 0.00 0.00 86 1016.3
20260903062030 78 350 0.0 0.0 0.00 0.00 0.00 86 1016.3
20260903061938 78 350 0.0 0.0 0.00 0.00 0.00 86 1016.3
20260903061824 78 350 0.0 0.0 0.00 0.00 0.00 86 1016.3
20260903061759 78 350 0.0 0.0 0.00 0.00 0.00 86 1016.3
20260903061532 78 350 0.0 0.0 0.00 0.00 0.00 86 1016.4
20260903061418 78 350 0.0 0.0 0.00 0.00 0.00 86 1016.3
20260903061324 78 350 0.0 0.0 0.00 0.00 0.00 85 1016.4
20260903061230 78 350 0.0 0.0 0.00 0.00 0.00 85 1016.4
20260903061120 78 350 0.0 0.0 0.00 0.00 0.00 85 1016.5
20260903061025 78 350 0.0 0.0 0.00 0.00 0.00 85 1016.4
20260903060953 78 350 0.0 0.0 0.00 0.00 0.00 86 1016.4
20260903060819 78 350 0.0 0.0 0.00 0.00 0.00 86 1016.4
20260903060725 78 350 0.0 0.0 0.00 0.00 0.00 86 1016.4
20260903060631 78 350 0.0 0.0 0.00 0.00 0.00 86 1016.3
20260903060523 78 350 0.0 0.0 0.00 0.00 0.00 86 1016.4
20260903060430 78 350 0.0 0.0 0.00 0.00 0.00 86 1016.5
20260903060357 78 350 0.0 0.0 0.00 0.00 0.00 85 1016.5
20260903060328 78 350 0.0 0.9 0.00 0.00 0.00 85 1016.5
20260903060023 78 350 0.0 0.9 0.00 0.00 0.00 86 1016.4
20260903055930 78 350 0.0 0.9 0.00 0.00 0.00 85 1016.4
20260903055836 78 350 0.0 0.9 0.00 0.00 0.00 86 1016.4
20260903055722 78 350 0.0 1.7 0.00 0.00 0.00 85 1016.4
20260903055628 78 350 0.0 1.7 0.00 0.00 0.00 85 1016.4
20260903055535 78 350 0.0 1.7 0.00 0.00 0.00 85 1016.4
20260903055426 78 350 0.0 1.7 0.00 0.00 0.00 85 1016.5
20260903055332 78 350 0.9 1.7 0.00 0.00 0.00 85 1016.4
20260903055218 78 350 0.9 1.7 0.00 0.00 0.00 85 1016.5
20260903055124 78 350 0.9 1.7 0.00 0.00 0.00 84 1016.4
20260903055031 78 350 0.9 2.6 0.00 0.00 0.00 84 1016.4
20260903054920 78 350 0.9 2.6 0.00 0.00 0.00 84 1016.5
20260903054827 78 350 0.9 2.6 0.00 0.00 0.00 83 1016.4
20260903054758 78 350 0.9 2.6 0.00 0.00 0.00 83 1016.4
20260903054551 78 350 0.9 2.6 0.00 0.00 0.00 83 1016.3
20260903054417 78 350 0.9 2.6 0.00 0.00 0.00 83 1016.4
20260903054344 78 350 0.9 2.6 0.00 0.00 0.00 84 1016.4
20260903054234 78 350 1.7 2.6 0.00 0.00 0.00 84 1016.4
20260903054119 78 350 1.7 2.6 0.00 0.00 0.00 84 1016.4
20260903054026 78 350 0.9 2.6 0.00 0.00 0.00 84 1016.4
20260903053932 78 350 0.9 2.6 0.00 0.00 0.00 83 1016.3
20260903053819 79 350 1.7 2.6 0.00 0.00 0.00 84 1016.4
20260903053726 78 350 1.7 2.6 0.00 0.00 0.00 84 1016.4
20260903053618 79 350 1.7 2.6 0.00 0.00 0.00 83 1016.4
20260903053525 79 350 1.7 2.6 0.00 0.00 0.00 83 1016.4
20260903053433 79 350 1.7 2.6 0.00 0.00 0.00 84 1016.4
20260903053318 79 350 1.7 2.6 0.00 0.00 0.00 83 1016.5
20260903053253 79 350 1.7 2.6 0.00 0.00 0.00 83 1016.5
20260903053025 79 350 1.7 2.6 0.00 0.00 0.00 83 1016.4
20260903052932 79 350 1.7 2.6 0.00 0.00 0.00 83 1016.4
20260903052819 79 350 1.7 2.6 0.00 0.00 0.00 83 1016.4
20260903052726 79 343 1.7 2.6 0.00 0.00 0.00 83 1016.4
20260903052631 79 343 0.9 2.6 0.00 0.00 0.00 84 1016.4
20260903052523 79 343 1.7 2.6 0.00 0.00 0.00 84 1016.4
20260903052430 79 343 1.7 2.6 0.00 0.00 0.00 84 1016.4
20260903052336 79 343 1.7 2.6 0.00 0.00 0.00 84 1016.4
20260903052242 79 343 1.7 2.6 0.00 0.00 0.00 84 1016.5
20260903052149 79 343 0.9 2.6 0.00 0.00 0.00 84 1016.4
20260903052035 79 343 0.9 1.7 0.00 0.00 0.00 84 1016.5
20260903051926 79 343 0.9 1.7 0.00 0.00 0.00 84 1016.4
20260903051832 79 343 1.7 1.7 0.00 0.00 0.00 84 1016.5
20260903051802 79 343 1.7 1.7 0.00 0.00 0.00 84 1016.5
20260903051535 79 343 0.9 2.6 0.00 0.00 0.00 84 1016.5
20260903051421 79 343 1.7 2.6 0.00 0.00 0.00 83 1016.5
20260903051333 79 343 1.7 2.6 0.00 0.00 0.00 83 1016.5
20260903051219 79 343 1.7 2.6 0.00 0.00 0.00 84 1016.5
20260903051127 79 343 0.9 2.6 0.00 0.00 0.00 83 1016.5
20260903051033 79 343 0.9 2.6 0.00 0.00 0.00 83 1016.5
20260903050921 79 343 0.9 2.6 0.00 0.00 0.00 83 1016.5
20260903050847 79 343 0.9 2.6 0.00 0.00 0.00 83 1016.5
20260903050736 79 343 1.7 2.6 0.00 0.00 0.00 83 1016.5
20260903050622 79 343 1.7 2.6 0.00 0.00 0.00 83 1016.5
20260903050529 79 343 1.7 2.6 0.00 0.00 0.00 83 1016.5
20260903050457 79 343 1.7 2.6 0.00 0.00 0.00 83 1016.5
20260903050322 80 343 0.9 2.6 0.00 0.00 0.00 83 1016.4
20260903050257 80 343 0.9 2.6 0.00 0.00 0.00 84 1016.4
20260903050051 80 343 0.0 0.9 0.00 0.00 0.00 84 1016.4
20260903045936 80 343 0.0 0.0 0.00 0.00 0.00 84 1016.4
20260903045824 80 343 0.0 0.0 0.00 0.00 0.00 84 1016.4
20260903045731 80 343 0.0 0.0 0.00 0.00 0.00 85 1016.4
20260903045622 80 343 0.0 0.0 0.00 0.00 0.00 85 1016.4
20260903045530 80 343 0.0 0.0 0.00 0.00 0.00 85 1016.4
20260903045417 80 343 0.0 0.0 0.00 0.00 0.00 85 1016.3
20260903045343 80 343 0.0 0.0 0.00 0.00 0.00 85 1016.3
20260903045228 80 343 0.0 0.0 0.00 0.00 0.00 85 1016.3
20260903045156 80 343 0.0 0.0 0.00 0.00 0.00 85 1016.4
20260903045022 80 343 0.0 0.0 0.00 0.00 0.00 85 1016.3
20260903044935 80 343 0.0 0.0 0.00 0.00 0.00 84 1016.4
20260903044821 80 343 0.0 0.0 0.00 0.00 0.00 84 1016.3
20260903044751 80 343 0.0 0.0 0.00 0.00 0.00 84 1016.3
20260903044524 80 343 0.0 0.0 0.00 0.00 0.00 84 1016.4
20260903044434 80 343 0.0 0.0 0.00 0.00 0.00 83 1016.3
20260903044322 80 343 0.0 0.0 0.00 0.00 0.00 83 1016.3
20260903044228 80 343 0.0 0.0 0.00 0.00 0.00 83 1016.3
20260903044134 80 343 0.0 0.0 0.00 0.00 0.00 82 1016.3
20260903044022 80 343 0.0 0.0 0.00 0.00 0.00 82 1016.3
20260903043929 80 343 0.0 0.0 0.00 0.00 0.00 81 1016.4
20260903043822 80 343 0.0 0.0 0.00 0.00 0.00 81 1016.4
20260903043750 80 343 0.0 0.0 0.00 0.00 0.00 81 1016.4
20260903043616 80 343 0.0 0.0 0.00 0.00 0.00 81 1016.4
20260903043523 80 343 0.0 0.0 0.00 0.00 0.00 80 1016.4
20260903043450 80 343 0.0 0.0 0.00 0.00 0.00 81 1016.3
20260903043336 80 343 0.0 0.0 0.00 0.00 0.00 81 1016.4
20260903043252 80 343 0.0 0.0 0.00 0.00 0.00 81 1016.4
20260903043043 80 343 0.0 0.0 0.00 0.00 0.00 81 1016.3
20260903042929 80 343 0.0 0.0 0.00 0.00 0.00 81 1016.4
20260903042836 80 343 0.0 0.0 0.00 0.00 0.00 82 1016.3
20260903042722 80 343 0.0 0.0 0.00 0.00 0.00 83 1016.4
20260903042634 80 343 0.0 0.0 0.00 0.00 0.00 83 1016.3
20260903042522 80 343 0.0 0.0 0.00 0.00 0.00 83 1016.4
20260903042429 80 343 0.0 0.0 0.00 0.00 0.00 83 1016.3
20260903042317 80 343 0.0 0.0 0.00 0.00 0.00 83 1016.3
20260903042243 80 343 0.0 0.0 0.00 0.00 0.00 83 1016.3
20260903042148 80 343 0.0 0.0 0.00 0.00 0.00 83 1016.4
20260903042017 81 343 0.0 0.0 0.00 0.00 0.00 83 1016.4
20260903041924 80 343 0.0 0.0 0.00 0.00 0.00 83 1016.3
20260903041822 80 343 0.0 0.0 0.00 0.00 0.00 83 1016.3
20260903041535 80 343 0.0 0.0 0.00 0.00 0.00 83 1016.2
20260903041427 81 343 0.0 0.0 0.00 0.00 0.00 83 1016.3
20260903041333 81 343 0.0 0.0 0.00 0.00 0.00 83 1016.3
20260903041219 81 343 0.0 0.0 0.00 0.00 0.00 83 1016.2
20260903041127 81 343 0.0 0.0 0.00 0.00 0.00 83 1016.2
20260903041054 80 343 0.0 0.0 0.00 0.00 0.00 83 1016.2
20260903040919 80 343 0.0 0.0 0.00 0.00 0.00 83 1016.2
20260903040829 80 343 0.0 0.0 0.00 0.00 0.00 83 1016.3
20260903040717 80 343 0.0 0.0 0.00 0.00 0.00 83 1016.2
20260903040623 80 343 0.0 0.9 0.00 0.00 0.00 82 1016.2
20260903040529 80 343 0.0 1.7 0.00 0.00 0.00 81 1016.2
20260903040417 80 343 0.0 1.7 0.00 0.00 0.00 81 1016.2
20260903040343 80 343 0.0 1.7 0.00 0.00 0.00 81 1016.3
20260903040257 80 343 0.0 1.7 0.00 0.00 0.00 82 1016.3
20260903040029 80 343 0.0 1.7 0.00 0.00 0.00 82 1016.2
20260903035936 80 343 0.0 1.7 0.00 0.00 0.00 81 1016.3
20260903035823 80 343 0.0 1.7 0.00 0.00 0.00 80 1016.2
20260903035733 80 343 0.9 1.7 0.00 0.00 0.00 80 1016.2
20260903035619 80 343 0.9 1.7 0.00 0.00 0.00 80 1016.2
20260903035527 81 343 0.0 1.7 0.00 0.00 0.00 81 1016.3
20260903035455 81 343 0.0 0.0 0.00 0.00 0.00 81 1016.2
20260903035320 81 343 0.0 0.0 0.00 0.00 0.00 80 1016.2
20260903035246 81 343 0.0 0.0 0.00 0.00 0.00 80 1016.2
20260903035132 81 343 0.0 0.0 0.00 0.00 0.00 80 1016.2
20260903035023 81 310 0.0 0.0 0.00 0.00 0.00 80 1016.2
20260903034950 81 307 0.0 0.0 0.00 0.00 0.00 80 1016.3
20260903034835 81 307 0.0 0.0 0.00 0.00 0.00 80 1016.3
20260903034805 81 307 0.0 0.0 0.00 0.00 0.00 80 1016.3
20260903034521 81 307 0.0 0.0 0.00 0.00 0.00 80 1016.3
20260903034428 81 307 0.0 0.0 0.00 0.00 0.00 81 1016.3
20260903034334 81 307 0.0 0.0 0.00 0.00 0.00 81 1016.4
20260903034222 81 307 0.0 0.0 0.00 0.00 0.00 80 1016.4
20260903034128 81 307 0.0 0.0 0.00 0.00 0.00 80 1016.4
20260903034035 81 307 0.0 0.0 0.00 0.00 0.00 81 1016.4
20260903033947 81 307 0.0 0.0 0.00 0.00 0.00 81 1016.4
20260903033853 81 307 0.0 0.0 0.00 0.00 0.00 81 1016.4
20260903033719 81 307 0.0 0.0 0.00 0.00 0.00 81 1016.4
20260903033646 81 307 0.0 0.0 0.00 0.00 0.00 80 1016.4
20260903033532 81 307 0.0 0.0 0.00 0.00 0.00 80 1016.4
20260903033440 81 307 0.0 0.0 0.00 0.00 0.00 81 1016.4
20260903033301 81 307 0.0 0.0 0.00 0.00 0.00 81 1016.5
20260903033034 81 307 0.0 0.0 0.00 0.00 0.00 81 1016.4
20260903032921 81 307 0.0 0.0 0.00 0.00 0.00 81 1016.5
20260903032828 82 307 0.0 0.0 0.00 0.00 0.00 81 1016.5
20260903032756 82 307 0.0 0.0 0.00 0.00 0.00 81 1016.6
20260903032626 82 307 0.0 0.0 0.00 0.00 0.00 81 1016.5
20260903032532 82 307 0.0 0.0 0.00 0.00 0.00 81 1016.5
20260903032439 82 307 0.0 0.0 0.00 0.00 0.00 81 1016.5
20260903032345 82 307 0.0 0.0 0.00 0.00 0.00 81 1016.5
20260903032232 82 307 0.0 0.0 0.00 0.00 0.00 81 1016.5
20260903032138 82 307 0.0 0.0 0.00 0.00 0.00 81 1016.5
20260903032045 82 307 0.0 0.0 0.00 0.00 0.00 82 1016.5
20260903031929 82 307 0.0 0.0 0.00 0.00 0.00 82 1016.5
20260903031900 82 307 0.0 0.0 0.00 0.00 0.00 82 1016.5
20260903031809 82 307 0.0 0.0 0.00 0.00 0.00 81 1016.5
20260903031522 82 307 0.0 0.0 0.00 0.00 0.00 81 1016.5
20260903031429 82 307 0.0 0.0 0.00 0.00 0.00 80 1016.5
20260903031320 82 307 0.0 0.0 0.00 0.00 0.00 80 1016.5
20260903031227 82 307 0.0 0.0 0.00 0.00 0.00 80 1016.5
20260903031135 82 307 0.0 0.0 0.00 0.00 0.00 80 1016.5
20260903031022 82 307 0.0 0.0 0.00 0.00 0.00 80 1016.5
20260903030930 82 307 0.0 0.0 0.00 0.00 0.00 80 1016.5
20260903030817 82 307 0.0 0.0 0.00 0.00 0.00 80 1016.4
20260903030747 82 307 0.0 0.0 0.00 0.00 0.00 80 1016.5
20260903030633 82 307 0.0 0.9 0.00 0.00 0.00 80 1016.5
20260903030520 82 307 0.0 1.7 0.00 0.00 0.00 80 1016.4
20260903030427 82 307 0.0 1.7 0.00 0.00 0.00 79 1016.5
20260903030308 82 307 0.0 1.7 0.00 0.00 0.00 79 1016.5
20260903030022 83 307 0.0 1.7 0.00 0.00 0.00 79 1016.4
20260903025929 83 307 0.0 1.7 0.00 0.00 0.00 79 1016.4
20260903025836 83 307 0.9 1.7 0.00 0.00 0.00 79 1016.4
20260903025722 83 307 0.9 1.7 0.00 0.00 0.00 79 1016.4
20260903025633 83 307 0.9 1.7 0.00 0.00 0.00 79 1016.3
20260903025539 83 307 0.0 1.7 0.00 0.00 0.00 79 1016.4
20260903025424 83 334 0.0 0.0 0.00 0.00 0.00 79 1016.3
20260903025332 83 334 0.0 0.0 0.00 0.00 0.00 79 1016.3
20260903025220 83 334 0.0 0.0 0.00 0.00 0.00 79 1016.3
20260903025149 83 334 0.0 0.0 0.00 0.00 0.00 78 1016.3
20260903025055 83 334 0.0 0.0 0.00 0.00 0.00 78 1016.3
20260903024925 83 334 0.0 0.9 0.00 0.00 0.00 78 1016.4
20260903024803 83 334 0.0 0.9 0.00 0.00 0.00 78 1016.4
20260903024536 83 334 0.0 0.9 0.00 0.00 0.00 78 1016.4
20260903024426 83 334 0.0 0.9 0.00 0.00 0.00 76 1016.3
20260903024334 83 334 0.0 0.9 0.00 0.00 0.00 76 1016.4
20260903024221 83 334 0.0 0.9 0.00 0.00 0.00 76 1016.4
20260903024127 83 334 0.0 0.9 0.00 0.00 0.00 76 1016.4
20260903024053 83 334 0.0 0.0 0.00 0.00 0.00 75 1016.4
20260903023920 83 334 0.0 0.0 0.00 0.00 0.00 75 1016.4
20260903023831 83 334 0.0 0.0 0.00 0.00 0.00 75 1016.4
20260903023717 83 334 0.0 0.0 0.00 0.00 0.00 75 1016.4
20260903023624 83 334 0.0 0.0 0.00 0.00 0.00 75 1016.3
20260903023530 83 334 0.0 0.0 0.00 0.00 0.00 75 1016.3
20260903023417 83 334 0.0 0.0 0.00 0.00 0.00 75 1016.3
20260903023345 83 334 0.0 0.0 0.00 0.00 0.00 75 1016.3
20260903023259 83 334 0.0 0.0 0.00 0.00 0.00 75 1016.3
20260903023031 83 334 0.0 0.0 0.00 0.00 0.00 75 1016.4
20260903022919 84 334 0.0 0.0 0.00 0.00 0.00 75 1016.3
20260903022826 84 334 0.0 0.0 0.00 0.00 0.00 75 1016.4
20260903022732 84 334 0.0 0.0 0.00 0.00 0.00 75 1016.4
20260903022622 84 334 0.0 0.0 0.00 0.00 0.00 75 1016.3
20260903022530 84 334 0.0 0.0 0.00 0.00 0.00 75 1016.3
20260903022416 84 334 0.0 0.0 0.00 0.00 0.00 75 1016.3
20260903022323 84 334 0.0 0.0 0.00 0.00 0.00 75 1016.3
20260903022229 84 334 0.0 0.0 0.00 0.00 0.00 75 1016.3
20260903022120 84 334 0.0 0.0 0.00 0.00 0.00 75 1016.3
20260903022027 84 334 0.0 0.0 0.00 0.00 0.00 74 1016.3
20260903021935 84 334 0.0 0.0 0.00 0.00 0.00 74 1016.4
20260903021823 84 334 0.0 0.0 0.00 0.00 0.00 74 1016.3
20260903021751 84 334 0.0 0.0 0.00 0.00 0.00 74 1016.4
20260903021529 84 334 0.0 0.0 0.00 0.00 0.00 74 1016.3
20260903021435 84 334 0.0 0.0 0.00 0.00 0.00 74 1016.4
20260903021322 84 334 0.0 0.0 0.00 0.00 0.00 74 1016.4
20260903021229 84 334 0.0 0.0 0.00 0.00 0.00 74 1016.3
20260903021135 84 334 0.0 0.0 0.00 0.00 0.00 74 1016.3
20260903021025 84 334 0.0 0.0 0.00 0.00 0.00 74 1016.3
20260903020934 84 334 0.0 0.0 0.00 0.00 0.00 74 1016.3
20260903020820 84 334 0.0 0.0 0.00 0.00 0.00 74 1016.2
20260903020727 84 334 0.0 0.0 0.00 0.00 0.00 74 1016.3
20260903020635 84 334 0.0 0.0 0.00 0.00 0.00 74 1016.2
20260903020520 84 334 0.0 0.0 0.00 0.00 0.00 73 1016.3
20260903020431 84 334 0.0 0.0 0.00 0.00 0.00 73 1016.3
20260903020310 84 334 0.0 0.0 0.00 0.00 0.00 73 1016.3
20260903020022 84 334 0.0 0.0 0.00 0.00 0.00 73 1016.4
20260903015934 84 334 0.0 0.0 0.00 0.00 0.00 72 1016.3
20260903015819 84 334 0.0 0.0 0.00 0.00 0.00 72 1016.3
20260903015745 84 334 0.0 0.0 0.00 0.00 0.00 72 1016.3
20260903015630 85 334 0.0 0.0 0.00 0.00 0.00 72 1016.4
20260903015556 85 334 0.0 0.9 0.00 0.00 0.00 72 1016.3
20260903015424 85 334 0.0 1.7 0.00 0.00 0.00 72 1016.4
20260903015332 85 334 0.0 1.7 0.00 0.00 0.00 72 1016.3
20260903015222 85 334 0.0 1.7 0.00 0.00 0.00 72 1016.3
20260903015129 85 334 0.0 1.7 0.00 0.00 0.00 71 1016.3
20260903015056 85 334 0.0 1.7 0.00 0.00 0.00 71 1016.3
20260903014922 85 334 0.0 1.7 0.00 0.00 0.00 71 1016.3
20260903014802 85 334 0.9 1.7 0.00 0.00 0.00 71 1016.2
20260903014556 85 334 0.9 1.7 0.00 0.00 0.00 71 1016.3
20260903014421 85 334 0.9 1.7 0.00 0.00 0.00 72 1016.3
20260903014328 85 334 0.0 1.7 0.00 0.00 0.00 72 1016.3
20260903014254 85 325 0.0 0.0 0.00 0.00 0.00 72 1016.2
20260903014120 85 325 0.0 0.0 0.00 0.00 0.00 72 1016.2
20260903014032 86 325 0.0 0.0 0.00 0.00 0.00 72 1016.3
20260903013919 86 325 0.0 0.0 0.00 0.00 0.00 73 1016.3
20260903013827 86 325 0.0 0.0 0.00 0.00 0.00 72 1016.2
20260903013733 86 325 0.0 0.0 0.00 0.00 0.00 72 1016.3
20260903013620 86 325 0.0 0.0 0.00 0.00 0.00 72 1016.2
20260903013547 86 325 0.0 0.0 0.00 0.00 0.00 72 1016.2
20260903013452 86 325 0.0 0.0 0.00 0.00 0.00 72 1016.2
20260903013343 86 325 0.0 0.0 0.00 0.00 0.00 72 1016.1
20260903013253 86 325 0.0 0.0 0.00 0.00 0.00 72 1016.1
20260903013026 86 5 0.0 0.0 0.00 0.00 0.00 72 1016.1
20260903012933 86 5 0.0 0.0 0.00 0.00 0.00 72 1016.1
20260903012824 86 5 0.0 0.0 0.00 0.00 0.00 72 1016.0
20260903012731 86 5 0.0 0.0 0.00 0.00 0.00 71 1016.1
20260903012619 86 5 0.0 0.0 0.00 0.00 0.00 71 1016.0
20260903012526 86 5 0.0 0.0 0.00 0.00 0.00 70 1016.0
20260903012434 86 5 0.0 0.0 0.00 0.00 0.00 71 1016.0
20260903012321 86 5 0.0 0.0 0.00 0.00 0.00 71 1016.0
20260903012253 86 5 0.0 0.0 0.00 0.00 0.00 70 1016.0
20260903012119 86 5 0.0 0.0 0.00 0.00 0.00 71 1016.0
20260903012026 86 5 0.0 0.0 0.00 0.00 0.00 70 1016.0
20260903011933 86 5 0.0 0.0 0.00 0.00 0.00 70 1015.9
20260903011818 86 5 0.0 0.0 0.00 0.00 0.00 70 1016.0
20260903011752 86 5 0.0 0.0 0.00 0.00 0.00 68 1015.9
20260903011545 87 5 0.0 0.9 0.00 0.00 0.00 67 1015.9
20260903011432 87 5 0.0 0.9 0.00 0.00 0.00 67 1015.9
20260903011317 87 5 0.0 1.7 0.00 0.00 0.00 67 1015.8
20260903011226 87 5 0.0 1.7 0.00 0.00 0.00 67 1015.9
20260903011134 87 5 0.0 1.7 0.00 0.00 0.00 67 1015.9
20260903011026 87 5 0.0 2.6 0.00 0.00 0.00 67 1015.7
20260903010932 87 5 0.0 2.6 0.00 0.00 0.00 67 1015.8
20260903010819 87 5 0.0 2.6 0.00 0.00 0.00 67 1015.8
20260903010727 87 5 0.0 2.6 0.00 0.00 0.00 66 1015.8
20260903010634 87 5 0.9 2.6 0.00 0.00 0.00 65 1015.7
20260903010542 87 5 0.9 2.6 0.00 0.00 0.00 65 1015.8
20260903010432 87 5 1.7 2.6 0.00 0.00 0.00 65 1015.8
20260903010308 88 5 1.7 3.5 0.00 0.00 0.00 64 1015.7
20260903010023 88 5 1.7 3.5 0.00 0.00 0.00 64 1015.9
20260903005933 88 5 1.7 3.5 0.00 0.00 0.00 65 1015.7
20260903005840 88 14 1.7 3.5 0.00 0.00 0.00 64 1015.8
20260903005727 88 26 1.7 3.5 0.00 0.00 0.00 64 1015.7
20260903005634 89 5 2.6 3.5 0.00 0.00 0.00 64 1015.9
20260903005542 89 5 2.6 3.5 0.00 0.00 0.00 64 1015.7
20260903005428 89 5 2.6 3.5 0.00 0.00 0.00 64 1015.8
20260903005318 89 5 1.7 3.5 0.00 0.00 0.00 64 1015.8
20260903005224 89 360 0.9 2.6 0.00 0.00 0.00 65 1015.7
20260903005130 89 334 0.0 0.0 0.00 0.00 0.00 65 1015.8
20260903005038 89 334 0.0 0.0 0.00 0.00 0.00 65 1015.7
20260903004923 89 334 0.0 0.0 0.00 0.00 0.00 65 1015.8
20260903004830 89 334 0.0 0.0 0.00 0.00 0.00 64 1015.7
20260903004804 89 334 0.0 0.0 0.00 0.00 0.00 63 1015.7
20260903004516 90 334 0.0 0.9 0.00 0.00 0.00 64 1015.6
20260903004423 90 334 0.0 1.7 0.00 0.00 0.00 64 1015.6
20260903004329 90 334 0.0 1.7 0.00 0.00 0.00 64 1015.6
20260903004236 90 334 0.0 1.7 0.00 0.00 0.00 64 1015.6
20260903004148 90 334 0.0 1.7 0.00 0.00 0.00 63 1015.7
20260903004033 90 334 0.0 1.7 0.00 0.00 0.00 63 1015.6
20260903003940 90 334 0.0 1.7 0.00 0.00 0.00 63 1015.6
20260903003827 90 334 0.0 1.7 0.00 0.00 0.00 62 1015.6
20260903003733 90 334 0.9 1.7 0.00 0.00 0.00 62 1015.7
20260903003639 91 334 0.9 1.7 0.00 0.00 0.00 62 1015.6
20260903003545 91 334 0.9 1.7 0.00 0.00 0.00 61 1015.7
20260903003417 91 334 0.9 1.7 0.00 0.00 0.00 61 1015.6
20260903003345 91 334 0.9 1.7 0.00 0.00 0.00 61 1015.6
20260903003315 91 334 0.9 1.7 0.00 0.00 0.00 60 1015.6
20260903003027 91 334 0.0 1.7 0.00 0.00 0.00 59 1015.6
20260903002932 91 202 0.0 0.9 0.00 0.00 0.00 60 1015.6
20260903002840 91 202 0.0 0.9 0.00 0.00 0.00 60 1015.6
20260903002730 91 202 0.0 2.6 0.00 0.00 0.00 61 1015.6
20260903002656 91 202 0.0 2.6 0.00 0.00 0.00 60 1015.6
20260903002543 91 202 0.0 2.6 0.00 0.00 0.00 59 1015.6
20260903002428 91 202 0.0 2.6 0.00 0.00 0.00 59 1015.6
20260903002316 91 202 0.0 2.6 0.00 0.00 0.00 58 1015.6
20260903002224 91 202 0.0 2.6 0.00 0.00 0.00 58 1015.6
20260903002135 91 202 0.0 2.6 0.00 0.00 0.00 58 1015.7
20260903002041 92 202 0.9 2.6 0.00 0.00 0.00 58 1015.6
20260903001925 92 202 1.7 2.6 0.00 0.00 0.00 59 1015.7
20260903001832 92 202 1.7 2.6 0.00 0.00 0.00 58 1015.6
20260903001802 92 207 1.7 2.6 0.00 0.00 0.00 58 1015.6
20260903001554 92 172 0.9 2.6 0.00 0.00 0.00 57 1015.6
20260903001424 92 136 0.9 1.7 0.00 0.00 0.00 57 1015.6
20260903001332 92 136 0.9 1.7 0.00 0.00 0.00 57 1015.6
20260903001219 92 136 0.9 2.6 0.00 0.00 0.00 57 1015.6
20260903001146 92 136 0.9 2.6 0.00 0.00 0.00 57 1015.6
20260903001033 92 137 0.9 2.6 0.00 0.00 0.00 56 1015.5
20260903000939 92 141 0.9 2.6 0.00 0.00 0.00 56 1015.5
20260903000829 92 132 1.7 2.6 0.00 0.00 0.00 56 1015.5
20260903000735 92 114 0.9 3.5 0.00 0.00 0.00 56 1015.5
20260903000624 93 114 0.9 3.5 0.00 0.00 0.00 56 1015.5
20260903000530 93 114 1.7 3.5 0.00 0.00 0.00 55 1015.5
20260903000418 93 114 1.7 3.5 0.00 0.00 0.00 55 1015.5
20260903000325 93 114 1.7 3.5 0.00 0.00 0.00 55 1015.5
20260903000258 93 120 1.7 3.5 0.00 0.00 0.00 56 1015.5
20260903000030 93 119 1.7 3.5 0.00 0.00 0.00 56 1015.5
20260902235936 93 117 2.6 3.5 0.00 0.00 0.00 56 1015.5
20260902235843 93 126 1.7 3.5 0.00 0.00 0.00 56 1015.5
20260902235728 93 121 0.9 2.6 0.00 0.00 0.00 57 1015.5
20260902235620 94 32 0.9 3.5 0.00 0.00 0.00 55 1015.5
20260902235547 94 32 0.9 3.5 0.00 0.00 0.00 54 1015.5